Time,TemperatureF,DewpointF,PressureIn,WindDirection,WindDirectionDegrees,WindSpeedMPH,WindSpeedGustMPH,Humidity,HourlyPrecipIn,Conditions,Clouds,dailyrainin,SolarRadiationWatts/m^2,SoftwareType,DateUTC
2013-06-08 00:00:00,56.9,53.7,29.88,East,81,0.0,0.0,89,0.00,CLR,,0.00,0.0,WeatherDisplay:10.37,2013-06-08 05:00:00,
2013-06-08 00:03:00,56.9,53.7,29.88,East,81,0.0,0.0,89,0.00,CLR,,0.00,0.0,WeatherDisplay:10.37,2013-06-08 05:03:00,
2013-06-08 00:04:00,56.9,54.0,29.88,East,81,0.0,0.0,90,0.00,CLR,,0.00,0.0,WeatherDisplay:10.37,2013-06-08 05:04:00,
2013-06-08 00:05:00,56.9,54.0,29.88,East,81,0.0,0.0,90,0.00,CLR,,0.00,0.0,WeatherDisplay:10.37,2013-06-08 05:05:00,
2013-06-08 00:08:00,56.9,54.0,29.88,East,81,0.0,0.0,90,0.00,CLR,,0.00,0.0,WeatherDisplay:10.37,2013-06-08 05:08:00,
2013-06-08 00:09:00,56.9,53.7,29.88,East,81,0.0,0.0,89,0.00,CLR,,0.00,0.0,WeatherDisplay:10.37,2013-06-08 05:09:00,
2013-06-08 00:10:00,56.9,53.7,29.88,East,81,0.0,0.0,89,0.00,CLR,,0.00,0.0,WeatherDisplay:10.37,2013-06-08 05:10:00,
2013-06-08 00:14:00,57.1,53.9,29.88,East,81,0.0,0.0,89,0.00,CLR,,0.00,0.0,WeatherDisplay:10.37,2013-06-08 05:14:00,
2013-06-08 00:15:00,57.2,54.0,29.88,East,81,0.0,0.0,89,0.00,CLR,,0.00,0.0,WeatherDisplay:10.37,2013-06-08 05:15:00,
2013-06-08 00:19:00,57.2,54.0,29.88,East,81,0.0,0.0,89,0.00,CLR,,0.00,0.0,WeatherDisplay:10.37,2013-06-08 05:19:00,
2013-06-08 00:20:00,57.2,54.0,29.88,East,81,0.0,0.0,89,0.00,CLR,,0.00,0.0,WeatherDisplay:10.37,2013-06-08 05:20:00,
2013-06-08 00:24:00,57.3,54.1,29.88,East,81,0.0,0.0,89,0.00,CLR,,0.00,0.0,WeatherDisplay:10.37,2013-06-08 05:24:00,
2013-06-08 00:25:00,57.3,54.1,29.88,East,81,0.0,0.0,89,0.00,CLR,,0.00,0.0,WeatherDisplay:10.37,2013-06-08 05:25:00,
2013-06-08 00:29:00,57.3,54.1,29.88,East,81,0.0,0.0,89,0.00,CLR,,0.00,0.0,WeatherDisplay:10.37,2013-06-08 05:29:00,
2013-06-08 00:30:00,57.2,54.0,29.88,East,81,0.0,0.0,89,0.00,CLR,,0.00,0.0,WeatherDisplay:10.37,2013-06-08 05:30:00,
2013-06-08 00:35:00,57.2,54.0,29.88,East,81,0.0,0.0,89,0.00,CLR,,0.00,0.0,WeatherDisplay:10.37,2013-06-08 05:35:00,
2013-06-08 00:36:00,57.2,54.0,29.88,East,81,0.0,0.0,89,0.00,CLR,,0.00,0.0,WeatherDisplay:10.37,2013-06-08 05:36:00,
2013-06-08 00:40:00,57.3,54.1,29.88,East,81,0.0,0.0,89,0.00,CLR,,0.00,0.0,WeatherDisplay:10.37,2013-06-08 05:40:00,
2013-06-08 00:42:00,57.3,54.1,29.88,East,81,0.0,0.0,89,0.00,CLR,,0.00,0.0,WeatherDisplay:10.37,2013-06-08 05:42:00,
2013-06-08 00:45:00,57.3,54.1,29.88,East,81,0.0,0.0,89,0.00,CLR,,0.00,0.0,WeatherDisplay:10.37,2013-06-08 05:45:00,
2013-06-08 00:46:00,57.3,54.1,29.88,East,81,0.0,0.0,89,0.00,CLR,,0.00,0.0,WeatherDisplay:10.37,2013-06-08 05:46:00,
2013-06-08 00:47:00,57.3,54.1,29.88,East,81,0.0,0.0,89,0.00,CLR,,0.00,0.0,WeatherDisplay:10.37,2013-06-08 05:47:00,
2013-06-08 00:50:00,57.3,54.1,29.88,East,81,0.0,0.0,89,0.00,CLR,,0.00,0.0,WeatherDisplay:10.37,2013-06-08 05:50:00,
2013-06-08 00:51:00,57.3,54.1,29.88,East,81,0.0,0.0,89,0.00,CLR,,0.00,0.0,WeatherDisplay:10.37,2013-06-08 05:51:00,
2013-06-08 00:53:00,57.1,53.9,29.87,East,81,0.0,0.0,89,0.00,CLR,,0.00,0.0,WeatherDisplay:10.37,2013-06-08 05:53:00,
2013-06-08 00:55:00,56.9,53.7,29.87,East,81,0.0,0.0,89,0.00,CLR,,0.00,0.0,WeatherDisplay:10.37,2013-06-08 05:55:00,
2013-06-08 00:56:00,56.9,54.0,29.87,East,81,0.0,0.0,90,0.00,CLR,,0.00,0.0,WeatherDisplay:10.37,2013-06-08 05:56:00,
2013-06-08 00:58:00,57.0,54.1,29.87,East,81,0.0,0.0,90,0.00,CLR,,0.00,0.0,WeatherDisplay:10.37,2013-06-08 05:58:00,
2013-06-08 01:00:00,56.9,53.7,29.87,East,81,0.0,0.0,89,0.00,CLR,,0.00,0.0,WeatherDisplay:10.37,2013-06-08 06:00:00,
2013-06-08 01:01:00,56.9,53.7,29.87,East,81,0.0,0.0,89,0.00,CLR,,0.00,0.0,WeatherDisplay:10.37,2013-06-08 06:01:00,
2013-06-08 01:02:00,56.9,53.7,29.87,East,81,0.0,0.0,89,0.00,CLR,,0.00,0.0,WeatherDisplay:10.37,2013-06-08 06:02:00,
2013-06-08 01:03:00,56.8,53.6,29.87,East,81,0.0,0.0,89,0.00,CLR,,0.00,0.0,WeatherDisplay:10.37,2013-06-08 06:03:00,
2013-06-08 01:05:00,56.8,53.6,29.87,East,81,0.0,0.0,89,0.00,CLR,,0.00,0.0,WeatherDisplay:10.37,2013-06-08 06:05:00,
2013-06-08 01:06:00,56.8,53.6,29.87,East,81,0.0,0.0,89,0.00,CLR,,0.00,0.0,WeatherDisplay:10.37,2013-06-08 06:06:00,
2013-06-08 01:07:00,56.8,53.6,29.87,East,81,0.0,0.0,89,0.00,CLR,,0.00,0.0,WeatherDisplay:10.37,2013-06-08 06:07:00,
2013-06-08 01:09:00,56.7,53.8,29.87,East,81,0.0,0.0,90,0.00,CLR,,0.00,0.0,WeatherDisplay:10.37,2013-06-08 06:09:00,
2013-06-08 01:10:00,56.7,53.8,29.87,East,81,0.0,0.0,90,0.00,CLR,,0.00,0.0,WeatherDisplay:10.37,2013-06-08 06:10:00,
2013-06-08 01:11:00,56.7,53.8,29.87,East,81,0.0,0.0,90,0.00,CLR,,0.00,0.0,WeatherDisplay:10.37,2013-06-08 06:11:00,
2013-06-08 01:12:00,56.8,53.9,29.87,East,81,0.0,0.0,90,0.00,CLR,,0.00,0.0,WeatherDisplay:10.37,2013-06-08 06:12:00,
2013-06-08 01:14:00,56.8,53.9,29.87,East,81,0.0,0.0,90,0.00,CLR,,0.00,0.0,WeatherDisplay:10.37,2013-06-08 06:14:00,
2013-06-08 01:16:00,56.9,54.0,29.87,East,81,0.0,0.0,90,0.00,CLR,,0.00,0.0,WeatherDisplay:10.37,2013-06-08 06:16:00,
2013-06-08 01:17:00,56.9,54.0,29.87,East,81,0.0,0.0,90,0.00,CLR,,0.00,0.0,WeatherDisplay:10.37,2013-06-08 06:17:00,
2013-06-08 01:18:00,57.0,54.1,29.87,East,81,0.0,0.0,90,0.00,CLR,,0.00,0.0,WeatherDisplay:10.37,2013-06-08 06:18:00,
2013-06-08 01:19:00,57.0,53.8,29.87,East,81,0.0,0.0,89,0.00,CLR,,0.00,0.0,WeatherDisplay:10.37,2013-06-08 06:19:00,
2013-06-08 01:21:00,57.0,53.8,29.87,East,81,0.0,0.0,89,0.00,CLR,,0.00,0.0,WeatherDisplay:10.37,2013-06-08 06:21:00,
2013-06-08 01:22:00,57.0,53.8,29.87,East,81,0.0,0.0,89,0.00,CLR,,0.00,0.0,WeatherDisplay:10.37,2013-06-08 06:22:00,
2013-06-08 01:23:00,57.0,54.1,29.86,East,81,0.0,0.0,90,0.00,CLR,,0.00,0.0,WeatherDisplay:10.37,2013-06-08 06:23:00,
2013-06-08 01:26:00,57.1,54.2,29.86,East,81,0.0,0.0,90,0.00,CLR,,0.00,0.0,WeatherDisplay:10.37,2013-06-08 06:26:00,
2013-06-08 01:27:00,57.1,54.2,29.86,East,81,0.0,0.0,90,0.00,CLR,,0.00,0.0,WeatherDisplay:10.37,2013-06-08 06:27:00,
2013-06-08 01:28:00,57.0,54.1,29.86,East,81,0.0,0.0,90,0.00,CLR,,0.00,0.0,WeatherDisplay:10.37,2013-06-08 06:28:00,
2013-06-08 01:32:00,56.8,53.6,29.86,East,81,0.0,0.0,89,0.00,CLR,,0.00,0.0,WeatherDisplay:10.37,2013-06-08 06:32:00,
2013-06-08 01:33:00,56.7,53.5,29.86,East,81,0.0,0.0,89,0.00,CLR,,0.00,0.0,WeatherDisplay:10.37,2013-06-08 06:33:00,
2013-06-08 01:37:00,56.8,53.9,29.86,East,81,0.0,0.0,90,0.00,CLR,,0.00,0.0,WeatherDisplay:10.37,2013-06-08 06:37:00,
2013-06-08 01:38:00,56.8,53.6,29.86,East,81,0.0,0.0,89,0.00,CLR,,0.00,0.0,WeatherDisplay:10.37,2013-06-08 06:38:00,
2013-06-08 01:42:00,56.8,53.6,29.86,East,81,0.0,0.0,89,0.00,CLR,,0.00,0.0,WeatherDisplay:10.37,2013-06-08 06:42:00,
2013-06-08 01:43:00,56.8,53.6,29.86,East,81,0.0,0.0,89,0.00,CLR,,0.00,0.0,WeatherDisplay:10.37,2013-06-08 06:43:00,
2013-06-08 01:44:00,56.7,53.5,29.86,East,81,0.0,0.0,89,0.00,CLR,,0.00,0.0,WeatherDisplay:10.37,2013-06-08 06:44:00,
2013-06-08 01:47:00,56.7,53.8,29.85,East,81,0.0,0.0,90,0.00,CLR,,0.00,0.0,WeatherDisplay:10.37,2013-06-08 06:47:00,
2013-06-08 01:48:00,56.7,53.8,29.85,East,81,0.0,0.0,90,0.00,CLR,,0.00,0.0,WeatherDisplay:10.37,2013-06-08 06:48:00,
2013-06-08 01:49:00,56.6,53.4,29.86,East,81,0.0,0.0,89,0.00,CLR,,0.00,0.0,WeatherDisplay:10.37,2013-06-08 06:49:00,
2013-06-08 01:52:00,56.4,53.5,29.85,East,81,0.0,0.0,90,0.00,CLR,,0.00,0.0,WeatherDisplay:10.37,2013-06-08 06:52:00,
2013-06-08 01:53:00,56.4,53.5,29.85,East,81,0.0,0.0,90,0.00,CLR,,0.00,0.0,WeatherDisplay:10.37,2013-06-08 06:53:00,
2013-06-08 01:54:00,56.4,53.5,29.85,East,81,0.0,0.0,90,0.00,CLR,,0.00,0.0,WeatherDisplay:10.37,2013-06-08 06:54:00,
2013-06-08 01:57:00,56.4,53.5,29.85,East,81,0.0,0.0,90,0.00,CLR,,0.00,0.0,WeatherDisplay:10.37,2013-06-08 06:57:00,
2013-06-08 01:58:00,56.4,53.5,29.85,East,81,0.0,0.0,90,0.00,CLR,,0.00,0.0,WeatherDisplay:10.37,2013-06-08 06:58:00,
2013-06-08 01:59:00,56.3,53.4,29.85,East,81,0.0,0.0,90,0.00,CLR,,0.00,0.0,WeatherDisplay:10.37,2013-06-08 06:59:00,
2013-06-08 02:02:00,56.4,53.5,29.85,East,81,0.0,0.0,90,0.00,CLR,,0.00,0.0,WeatherDisplay:10.37,2013-06-08 07:02:00,
2013-06-08 02:03:00,56.5,53.6,29.85,East,81,0.0,0.0,90,0.00,CLR,,0.00,0.0,WeatherDisplay:10.37,2013-06-08 07:03:00,
2013-06-08 02:04:00,56.6,53.4,29.85,East,81,0.0,0.0,89,0.00,CLR,,0.00,0.0,WeatherDisplay:10.37,2013-06-08 07:04:00,
2013-06-08 02:08:00,56.8,53.3,29.85,East,81,0.0,0.0,88,0.00,CLR,,0.00,0.0,WeatherDisplay:10.37,2013-06-08 07:08:00,
2013-06-08 02:09:00,56.8,53.6,29.85,East,81,0.0,0.0,89,0.00,CLR,,0.00,0.0,WeatherDisplay:10.37,2013-06-08 07:09:00,
2013-06-08 02:14:00,56.6,53.7,29.85,East,81,0.0,0.0,90,0.00,CLR,,0.00,0.0,WeatherDisplay:10.37,2013-06-08 07:14:00,
2013-06-08 02:19:00,56.6,53.7,29.85,East,81,0.0,0.0,90,0.00,CLR,,0.00,0.0,WeatherDisplay:10.37,2013-06-08 07:19:00,
2013-06-08 02:20:00,56.5,53.3,29.85,East,81,0.0,0.0,89,0.00,CLR,,0.00,0.0,WeatherDisplay:10.37,2013-06-08 07:20:00,
2013-06-08 02:24:00,56.3,53.4,29.85,East,81,0.0,0.0,90,0.00,CLR,,0.00,0.0,WeatherDisplay:10.37,2013-06-08 07:24:00,
2013-06-08 02:25:00,56.4,53.5,29.85,East,81,0.0,0.0,90,0.00,CLR,,0.00,0.0,WeatherDisplay:10.37,2013-06-08 07:25:00,
2013-06-08 02:29:00,56.4,53.5,29.84,East,81,0.0,0.0,90,0.00,CLR,,0.00,0.0,WeatherDisplay:10.37,2013-06-08 07:29:00,
2013-06-08 02:30:00,56.4,53.5,29.84,East,81,0.0,0.0,90,0.00,CLR,,0.00,0.0,WeatherDisplay:10.37,2013-06-08 07:30:00,
2013-06-08 02:31:00,56.4,53.5,29.84,East,81,0.0,0.0,90,0.00,CLR,,0.00,0.0,WeatherDisplay:10.37,2013-06-08 07:31:00,
2013-06-08 02:34:00,56.3,53.4,29.84,East,81,0.0,0.0,90,0.00,CLR,,0.00,0.0,WeatherDisplay:10.37,2013-06-08 07:34:00,
2013-06-08 02:35:00,56.3,53.4,29.84,East,81,0.0,0.0,90,0.00,CLR,,0.00,0.0,WeatherDisplay:10.37,2013-06-08 07:35:00,
2013-06-08 02:37:00,56.2,53.6,29.84,East,81,0.0,0.0,91,0.00,CLR,,0.00,0.0,WeatherDisplay:10.37,2013-06-08 07:37:00,
2013-06-08 02:39:00,56.2,53.6,29.84,East,81,0.0,0.0,91,0.00,CLR,,0.00,0.0,WeatherDisplay:10.37,2013-06-08 07:39:00,
2013-06-08 02:40:00,56.1,53.5,29.84,East,81,0.0,0.0,91,0.00,CLR,,0.00,0.0,WeatherDisplay:10.37,2013-06-08 07:40:00,
2013-06-08 02:43:00,56.0,53.4,29.84,East,81,0.0,0.0,91,0.00,CLR,,0.00,0.0,WeatherDisplay:10.37,2013-06-08 07:43:00,
2013-06-08 02:45:00,56.0,53.4,29.84,East,81,0.0,0.0,91,0.00,CLR,,0.00,0.0,WeatherDisplay:10.37,2013-06-08 07:45:00,
2013-06-08 02:48:00,56.1,53.5,29.84,East,81,0.0,0.0,91,0.00,CLR,,0.00,0.0,WeatherDisplay:10.37,2013-06-08 07:48:00,
2013-06-08 02:50:00,56.2,53.3,29.84,East,81,0.0,0.0,90,0.00,CLR,,0.00,0.0,WeatherDisplay:10.37,2013-06-08 07:50:00,
2013-06-08 02:51:00,56.3,53.4,29.84,East,81,0.0,0.0,90,0.00,CLR,,0.00,0.0,WeatherDisplay:10.37,2013-06-08 07:51:00,
2013-06-08 02:53:00,56.4,53.5,29.84,East,81,0.0,1.0,90,0.00,CLR,,0.00,0.0,WeatherDisplay:10.37,2013-06-08 07:53:00,
2013-06-08 02:55:00,56.4,53.5,29.84,East,81,0.0,0.0,90,0.00,CLR,,0.00,0.0,WeatherDisplay:10.37,2013-06-08 07:55:00,
2013-06-08 02:57:00,56.4,53.5,29.84,East,81,0.0,0.0,90,0.00,CLR,,0.00,0.0,WeatherDisplay:10.37,2013-06-08 07:57:00,
2013-06-08 02:58:00,56.5,53.9,29.84,East,81,0.0,0.0,91,0.00,CLR,,0.00,0.0,WeatherDisplay:10.37,2013-06-08 07:58:00,
2013-06-08 03:00:00,56.4,53.5,29.84,East,81,0.0,0.0,90,0.00,CLR,,0.00,0.0,WeatherDisplay:10.37,2013-06-08 08:00:00,
2013-06-08 03:01:00,56.4,53.5,29.84,East,81,0.0,0.0,90,0.00,CLR,,0.00,0.0,WeatherDisplay:10.37,2013-06-08 08:01:00,
2013-06-08 03:02:00,56.4,53.5,29.84,East,81,0.0,0.0,90,0.00,CLR,,0.00,0.0,WeatherDisplay:10.37,2013-06-08 08:02:00,
2013-06-08 03:04:00,56.3,53.4,29.83,East,81,0.0,0.0,90,0.00,CLR,,0.00,0.0,WeatherDisplay:10.37,2013-06-08 08:04:00,
2013-06-08 03:06:00,56.2,53.3,29.83,East,81,0.0,0.0,90,0.00,CLR,,0.00,0.0,WeatherDisplay:10.37,2013-06-08 08:06:00,
2013-06-08 03:07:00,56.2,53.3,29.83,East,81,0.0,0.0,90,0.00,CLR,,0.00,0.0,WeatherDisplay:10.37,2013-06-08 08:07:00,
2013-06-08 03:09:00,56.3,53.4,29.83,East,87,0.1,2.3,90,0.00,CLR,,0.00,0.0,WeatherDisplay:10.37,2013-06-08 08:09:00,
2013-06-08 03:11:00,56.3,53.4,29.83,East,87,0.0,0.0,90,0.00,CLR,,0.00,0.0,WeatherDisplay:10.37,2013-06-08 08:11:00,
2013-06-08 03:12:00,56.3,53.4,29.83,East,87,0.0,0.0,90,0.00,CLR,,0.00,0.0,WeatherDisplay:10.37,2013-06-08 08:12:00,
2013-06-08 03:13:00,56.3,53.4,29.83,East,87,0.0,0.0,90,0.00,CLR,,0.00,0.0,WeatherDisplay:10.37,2013-06-08 08:13:00,
2013-06-08 03:15:00,56.2,53.3,29.83,SE,126,0.2,1.2,90,0.00,CLR,,0.00,0.0,WeatherDisplay:10.37,2013-06-08 08:15:00,
2013-06-08 03:16:00,56.2,53.3,29.83,SSE,153,0.4,2.3,90,0.00,CLR,,0.00,0.0,WeatherDisplay:10.37,2013-06-08 08:16:00,
2013-06-08 03:17:00,56.2,53.3,29.83,SSE,153,0.4,2.3,90,0.00,CLR,,0.00,0.0,WeatherDisplay:10.37,2013-06-08 08:17:00,
2013-06-08 03:18:00,56.2,53.0,29.83,SSE,153,0.1,0.0,89,0.00,CLR,,0.00,0.0,WeatherDisplay:10.37,2013-06-08 08:18:00,
2013-06-08 03:20:00,56.4,53.2,29.83,SE,146,0.4,2.3,89,0.00,CLR,,0.00,0.0,WeatherDisplay:10.37,2013-06-08 08:20:00,
2013-06-08 03:22:00,56.7,53.2,29.83,SE,146,0.0,0.0,88,0.00,CLR,,0.00,0.0,WeatherDisplay:10.37,2013-06-08 08:22:00,
2013-06-08 03:23:00,56.8,53.3,29.83,SE,146,0.0,0.0,88,0.00,CLR,,0.00,0.0,WeatherDisplay:10.37,2013-06-08 08:23:00,
2013-06-08 03:25:00,56.8,53.3,29.83,SSE,153,0.0,1.2,88,0.00,CLR,,0.00,0.0,WeatherDisplay:10.37,2013-06-08 08:25:00,
2013-06-08 03:27:00,56.8,53.3,29.83,SSE,153,0.0,0.0,88,0.00,CLR,,0.00,0.0,WeatherDisplay:10.37,2013-06-08 08:27:00,
2013-06-08 03:28:00,56.8,53.3,29.83,SSE,153,0.0,0.0,88,0.00,CLR,,0.00,0.0,WeatherDisplay:10.37,2013-06-08 08:28:00,
2013-06-08 03:30:00,56.8,53.6,29.83,SSE,153,0.0,1.2,89,0.00,CLR,,0.00,0.0,WeatherDisplay:10.37,2013-06-08 08:30:00,
2013-06-08 03:32:00,56.9,53.4,29.83,SSE,155,0.4,1.2,88,0.00,CLR,,0.00,0.0,WeatherDisplay:10.37,2013-06-08 08:32:00,
2013-06-08 03:33:00,57.0,53.5,29.83,SSE,157,0.1,2.3,88,0.00,CLR,,0.00,0.0,WeatherDisplay:10.37,2013-06-08 08:33:00,
2013-06-08 03:34:00,57.1,53.6,29.83,SSE,157,0.6,1.2,88,0.00,CLR,,0.00,0.0,WeatherDisplay:10.37,2013-06-08 08:34:00,
2013-06-08 03:35:00,57.1,53.6,29.83,SSE,157,0.0,1.0,88,0.00,CLR,,0.00,0.0,WeatherDisplay:10.37,2013-06-08 08:35:00,
2013-06-08 03:37:00,57.1,53.3,29.83,SSE,157,0.0,1.2,87,0.00,CLR,,0.00,0.0,WeatherDisplay:10.37,2013-06-08 08:37:00,
2013-06-08 03:38:00,57.0,53.5,29.83,SSE,157,0.0,0.0,88,0.00,CLR,,0.00,0.0,WeatherDisplay:10.37,2013-06-08 08:38:00,
2013-06-08 03:39:00,57.0,53.2,29.83,SSE,157,0.0,0.0,87,0.00,CLR,,0.00,0.0,WeatherDisplay:10.37,2013-06-08 08:39:00,
2013-06-08 03:41:00,56.9,53.4,29.83,SSE,157,0.0,0.0,88,0.00,CLR,,0.00,0.0,WeatherDisplay:10.37,2013-06-08 08:41:00,
2013-06-08 03:42:00,56.9,53.4,29.83,SSE,157,0.1,1.2,88,0.00,CLR,,0.00,0.0,WeatherDisplay:10.37,2013-06-08 08:42:00,
2013-06-08 03:43:00,56.9,53.1,29.83,SSE,157,0.0,1.2,87,0.00,CLR,,0.00,0.0,WeatherDisplay:10.37,2013-06-08 08:43:00,
2013-06-08 03:44:00,56.9,53.1,29.83,SSE,157,0.0,1.2,87,0.00,CLR,,0.00,0.0,WeatherDisplay:10.37,2013-06-08 08:44:00,
2013-06-08 03:46:00,56.9,53.1,29.83,SSE,157,0.0,0.0,87,0.00,CLR,,0.00,0.0,WeatherDisplay:10.37,2013-06-08 08:46:00,
2013-06-08 03:47:00,56.9,53.1,29.83,SSE,157,0.0,0.0,87,0.00,CLR,,0.00,0.0,WeatherDisplay:10.37,2013-06-08 08:47:00,
2013-06-08 03:48:00,57.0,53.5,29.83,SSE,157,0.0,1.2,88,0.00,CLR,,0.00,0.0,WeatherDisplay:10.37,2013-06-08 08:48:00,
2013-06-08 03:49:00,56.9,53.4,29.83,SSE,157,0.0,1.2,88,0.00,CLR,,0.00,0.0,WeatherDisplay:10.37,2013-06-08 08:49:00,
2013-06-08 03:52:00,56.9,53.4,29.83,SSE,157,0.0,0.0,88,0.00,CLR,,0.00,0.0,WeatherDisplay:10.37,2013-06-08 08:52:00,
2013-06-08 03:53:00,56.8,53.3,29.83,SSE,157,0.0,0.0,88,0.00,CLR,,0.00,0.0,WeatherDisplay:10.37,2013-06-08 08:53:00,
2013-06-08 03:54:00,56.8,53.3,29.83,SSE,157,0.1,1.0,88,0.00,CLR,,0.00,0.0,WeatherDisplay:10.37,2013-06-08 08:54:00,
2013-06-08 03:57:00,56.9,53.1,29.83,SSE,157,0.2,0.0,87,0.00,CLR,,0.00,0.0,WeatherDisplay:10.37,2013-06-08 08:57:00,
2013-06-08 03:58:00,56.9,53.1,29.83,SSE,157,0.1,1.2,87,0.00,CLR,,0.00,0.0,WeatherDisplay:10.37,2013-06-08 08:58:00,
2013-06-08 03:59:00,56.9,53.1,29.83,SSE,157,0.2,2.3,87,0.00,CLR,,0.00,0.0,WeatherDisplay:10.37,2013-06-08 08:59:00,
2013-06-08 04:00:00,57.0,53.2,29.83,SSE,157,0.0,1.2,87,0.00,CLR,,0.00,0.0,WeatherDisplay:10.37,2013-06-08 09:00:00,
2013-06-08 04:02:00,57.1,53.3,29.83,SSE,157,0.0,0.0,87,0.00,CLR,,0.00,0.0,WeatherDisplay:10.37,2013-06-08 09:02:00,
2013-06-08 04:03:00,57.1,53.3,29.83,SSE,157,0.0,0.0,87,0.00,CLR,,0.00,0.0,WeatherDisplay:10.37,2013-06-08 09:03:00,
2013-06-08 04:04:00,57.0,53.5,29.83,SSE,157,0.0,0.0,88,0.00,CLR,,0.00,0.0,WeatherDisplay:10.37,2013-06-08 09:04:00,
2013-06-08 04:05:00,56.9,53.1,29.83,SSE,157,0.0,1.2,87,0.00,CLR,,0.00,0.0,WeatherDisplay:10.37,2013-06-08 09:05:00,
2013-06-08 04:08:00,56.9,53.4,29.83,SSE,157,0.0,0.0,88,0.00,CLR,,0.00,0.0,WeatherDisplay:10.37,2013-06-08 09:08:00,
2013-06-08 04:09:00,56.9,53.4,29.83,SSE,157,0.0,0.0,88,0.00,CLR,,0.00,0.0,WeatherDisplay:10.37,2013-06-08 09:09:00,
2013-06-08 04:10:00,56.9,53.4,29.83,SSE,157,0.0,0.0,88,0.00,CLR,,0.00,0.0,WeatherDisplay:10.37,2013-06-08 09:10:00,
2013-06-08 04:13:00,56.6,53.1,29.84,SSE,157,0.0,0.0,88,0.00,CLR,,0.00,0.0,WeatherDisplay:10.37,2013-06-08 09:13:00,
2013-06-08 04:14:00,56.6,53.1,29.83,SSE,157,0.1,0.0,88,0.00,CLR,,0.00,0.0,WeatherDisplay:10.37,2013-06-08 09:14:00,
2013-06-08 04:15:00,56.5,53.0,29.83,SSE,157,0.0,1.2,88,0.00,CLR,,0.00,0.0,WeatherDisplay:10.37,2013-06-08 09:15:00,
2013-06-08 04:18:00,56.4,52.9,29.84,SSE,157,0.0,0.0,88,0.00,CLR,,0.00,0.0,WeatherDisplay:10.37,2013-06-08 09:18:00,
2013-06-08 04:19:00,56.4,53.2,29.84,SSE,157,0.2,0.0,89,0.00,CLR,,0.00,0.0,WeatherDisplay:10.37,2013-06-08 09:19:00,
2013-06-08 04:20:00,56.3,53.1,29.84,SSE,157,0.0,1.2,89,0.00,CLR,,0.00,0.0,WeatherDisplay:10.37,2013-06-08 09:20:00,
2013-06-08 04:23:00,56.4,53.2,29.84,SSE,157,0.0,0.0,89,0.00,CLR,,0.00,0.0,WeatherDisplay:10.37,2013-06-08 09:23:00,
2013-06-08 04:24:00,56.5,53.3,29.84,SSE,157,0.0,0.0,89,0.00,CLR,,0.00,0.0,WeatherDisplay:10.37,2013-06-08 09:24:00,
2013-06-08 04:25:00,56.4,53.2,29.84,SSE,157,0.1,1.2,89,0.00,CLR,,0.00,0.0,WeatherDisplay:10.37,2013-06-08 09:25:00,
2013-06-08 04:28:00,56.5,53.3,29.84,SSE,157,0.0,0.0,89,0.00,CLR,,0.00,0.0,WeatherDisplay:10.37,2013-06-08 09:28:00,
2013-06-08 04:29:00,56.5,53.3,29.84,SSE,157,0.0,0.0,89,0.00,CLR,,0.00,0.0,WeatherDisplay:10.37,2013-06-08 09:29:00,
2013-06-08 04:30:00,56.5,53.3,29.84,SSE,157,0.0,0.0,89,0.00,CLR,,0.00,0.0,WeatherDisplay:10.37,2013-06-08 09:30:00,
2013-06-08 04:34:00,56.4,52.9,29.84,SSE,157,0.1,1.2,88,0.00,CLR,,0.00,0.0,WeatherDisplay:10.37,2013-06-08 09:34:00,
2013-06-08 04:35:00,56.4,52.9,29.84,SSE,157,0.0,1.2,88,0.00,CLR,,0.00,0.0,WeatherDisplay:10.37,2013-06-08 09:35:00,
2013-06-08 04:39:00,56.5,53.0,29.84,SSE,157,0.0,0.0,88,0.00,CLR,,0.00,0.0,WeatherDisplay:10.37,2013-06-08 09:39:00,
2013-06-08 04:40:00,56.5,53.0,29.84,SSE,157,0.0,0.0,88,0.00,CLR,,0.00,0.0,WeatherDisplay:10.37,2013-06-08 09:40:00,
2013-06-08 04:41:00,56.5,53.0,29.84,SSE,157,0.1,1.2,88,0.00,CLR,,0.00,0.0,WeatherDisplay:10.37,2013-06-08 09:41:00,
2013-06-08 04:44:00,56.3,53.1,29.84,SSE,157,0.0,0.0,89,0.00,CLR,,0.00,0.0,WeatherDisplay:10.37,2013-06-08 09:44:00,
2013-06-08 04:45:00,56.2,53.0,29.84,SSE,155,0.3,1.0,89,0.00,CLR,,0.00,0.0,WeatherDisplay:10.37,2013-06-08 09:45:00,
2013-06-08 04:46:00,56.2,53.0,29.84,SSE,155,0.2,2.3,89,0.00,CLR,,0.00,0.0,WeatherDisplay:10.37,2013-06-08 09:46:00,
2013-06-08 04:49:00,56.1,52.9,29.84,SSE,149,0.4,1.2,89,0.00,CLR,,0.00,0.0,WeatherDisplay:10.37,2013-06-08 09:49:00,
2013-06-08 04:50:00,56.1,52.9,29.84,SSE,149,0.0,2.3,89,0.00,CLR,,0.00,0.0,WeatherDisplay:10.37,2013-06-08 09:50:00,
2013-06-08 04:52:00,56.0,52.8,29.84,SSE,149,0.0,0.0,89,0.00,CLR,,0.00,0.0,WeatherDisplay:10.37,2013-06-08 09:52:00,
2013-06-08 04:54:00,56.0,52.8,29.84,South,171,1.4,0.0,89,0.00,CLR,,0.00,0.0,WeatherDisplay:10.37,2013-06-08 09:54:00,
2013-06-08 04:55:00,56.0,52.8,29.84,South,171,0.2,2.3,89,0.00,CLR,,0.00,0.0,WeatherDisplay:10.37,2013-06-08 09:55:00,
2013-06-08 04:57:00,56.0,52.8,29.84,South,171,0.0,1.2,89,0.00,CLR,,0.00,0.0,WeatherDisplay:10.37,2013-06-08 09:57:00,
2013-06-08 04:59:00,56.0,52.8,29.84,South,171,0.1,1.2,89,0.00,CLR,,0.00,0.0,WeatherDisplay:10.37,2013-06-08 09:59:00,
2013-06-08 05:00:00,55.9,52.7,29.84,South,171,0.1,1.2,89,0.00,CLR,,0.00,0.0,WeatherDisplay:10.37,2013-06-08 10:00:00,
2013-06-08 05:01:00,55.9,52.7,29.84,SSE,149,0.4,1.2,89,0.00,CLR,,0.00,0.0,WeatherDisplay:10.37,2013-06-08 10:01:00,
2013-06-08 05:02:00,55.8,52.9,29.84,SSE,149,0.0,1.2,90,0.00,CLR,,0.00,0.0,WeatherDisplay:10.37,2013-06-08 10:02:00,
2013-06-08 05:04:00,55.7,52.5,29.84,SSE,149,0.0,0.0,89,0.00,CLR,,0.00,0.0,WeatherDisplay:10.37,2013-06-08 10:04:00,
2013-06-08 05:05:00,55.7,52.8,29.84,SSE,149,0.0,0.0,90,0.00,CLR,,0.00,0.0,WeatherDisplay:10.37,2013-06-08 10:05:00,
2013-06-08 05:06:00,55.6,52.7,29.84,SSE,149,0.0,0.0,90,0.00,CLR,,0.00,0.0,WeatherDisplay:10.37,2013-06-08 10:06:00,
2013-06-08 05:07:00,55.6,52.7,29.84,SSE,149,0.0,1.2,90,0.00,CLR,,0.00,0.0,WeatherDisplay:10.37,2013-06-08 10:07:00,
2013-06-08 05:09:00,55.7,52.8,29.84,South,171,0.2,2.0,90,0.00,CLR,,0.00,0.0,WeatherDisplay:10.37,2013-06-08 10:09:00,
2013-06-08 05:11:00,55.8,52.9,29.83,SSE,159,0.7,2.3,90,0.00,CLR,,0.00,0.0,WeatherDisplay:10.37,2013-06-08 10:11:00,
2013-06-08 05:13:00,56.0,53.1,29.83,SSE,159,0.9,2.3,90,0.00,CLR,,0.00,0.0,WeatherDisplay:10.37,2013-06-08 10:13:00,
2013-06-08 05:15:00,56.2,53.0,29.84,SSE,159,0.0,0.0,89,0.00,CLR,,0.00,0.0,WeatherDisplay:10.37,2013-06-08 10:15:00,
2013-06-08 05:16:00,56.3,53.1,29.84,SSW,203,0.4,2.3,89,0.00,CLR,,0.00,0.0,WeatherDisplay:10.37,2013-06-08 10:16:00,
2013-06-08 05:17:00,56.3,53.1,29.84,SSW,204,0.7,2.3,89,0.00,CLR,,0.00,0.0,WeatherDisplay:10.37,2013-06-08 10:17:00,
2013-06-08 05:18:00,56.4,52.9,29.84,South,175,0.4,3.5,88,0.00,CLR,,0.00,0.0,WeatherDisplay:10.37,2013-06-08 10:18:00,
2013-06-08 05:20:00,56.6,53.1,29.84,SSE,165,0.6,2.3,88,0.00,CLR,,0.00,0.0,WeatherDisplay:10.37,2013-06-08 10:20:00,
2013-06-08 05:22:00,56.8,53.0,29.84,SSE,167,0.2,3.5,87,0.00,CLR,,0.00,0.0,WeatherDisplay:10.37,2013-06-08 10:22:00,
2013-06-08 05:23:00,56.9,53.1,29.84,South,171,1.0,2.3,87,0.00,CLR,,0.00,0.0,WeatherDisplay:10.37,2013-06-08 10:23:00,
2013-06-08 05:24:00,57.1,53.0,29.84,SSE,155,0.6,2.3,86,0.00,CLR,,0.00,0.0,WeatherDisplay:10.37,2013-06-08 10:24:00,
2013-06-08 05:25:00,57.1,53.0,29.84,SSE,155,0.3,1.2,86,0.00,CLR,,0.00,0.0,WeatherDisplay:10.37,2013-06-08 10:25:00,
2013-06-08 05:27:00,57.1,53.3,29.84,SSE,155,0.1,1.2,87,0.00,CLR,,0.00,0.0,WeatherDisplay:10.37,2013-06-08 10:27:00,
2013-06-08 05:28:00,57.1,53.3,29.84,SSE,155,0.2,1.2,87,0.00,CLR,,0.00,0.0,WeatherDisplay:10.37,2013-06-08 10:28:00,
2013-06-08 05:29:00,57.0,53.2,29.84,South,180,0.9,3.0,87,0.00,CLR,,0.00,0.0,WeatherDisplay:10.37,2013-06-08 10:29:00,
2013-06-08 05:31:00,57.0,53.2,29.84,SSE,150,0.6,3.5,87,0.00,CLR,,0.00,0.0,WeatherDisplay:10.37,2013-06-08 10:31:00,
2013-06-08 05:32:00,57.1,53.3,29.84,SSE,152,0.6,2.3,87,0.00,CLR,,0.00,0.0,WeatherDisplay:10.37,2013-06-08 10:32:00,
2013-06-08 05:33:00,57.1,53.0,29.84,SSE,161,0.9,2.3,86,0.00,CLR,,0.00,0.0,WeatherDisplay:10.37,2013-06-08 10:33:00,
2013-06-08 05:34:00,57.2,53.0,29.84,SSE,157,1.9,2.3,86,0.00,CLR,,0.00,0.0,WeatherDisplay:10.37,2013-06-08 10:34:00,
2013-06-08 05:37:00,57.3,53.1,29.84,SSE,155,0.1,1.0,86,0.00,CLR,,0.00,0.0,WeatherDisplay:10.37,2013-06-08 10:37:00,
2013-06-08 05:38:00,57.3,53.1,29.84,SSE,155,0.6,1.2,86,0.00,CLR,,0.00,0.0,WeatherDisplay:10.37,2013-06-08 10:38:00,
2013-06-08 05:39:00,57.4,53.2,29.84,South,176,0.4,2.3,86,0.00,CLR,,0.00,0.0,WeatherDisplay:10.37,2013-06-08 10:39:00,
2013-06-08 05:42:00,57.5,53.0,29.84,South,186,0.8,1.2,85,0.00,CLR,,0.00,0.0,WeatherDisplay:10.37,2013-06-08 10:42:00,
2013-06-08 05:43:00,57.6,53.1,29.84,South,186,0.2,2.3,85,0.00,CLR,,0.00,0.0,WeatherDisplay:10.37,2013-06-08 10:43:00,
2013-06-08 05:44:00,57.5,53.3,29.84,SSE,165,0.5,1.2,86,0.00,CLR,,0.00,0.0,WeatherDisplay:10.37,2013-06-08 10:44:00,
2013-06-08 05:47:00,57.6,53.1,29.83,South,169,0.4,3.5,85,0.00,CLR,,0.00,0.0,WeatherDisplay:10.37,2013-06-08 10:47:00,
2013-06-08 05:48:00,57.6,53.1,29.83,South,169,0.1,2.3,85,0.00,CLR,,0.00,0.0,WeatherDisplay:10.37,2013-06-08 10:48:00,
2013-06-08 05:49:00,57.6,53.1,29.83,South,169,0.6,1.2,85,0.00,CLR,,0.00,0.0,WeatherDisplay:10.37,2013-06-08 10:49:00,
2013-06-08 05:50:00,57.6,53.1,29.83,South,169,0.6,1.2,85,0.00,CLR,,0.00,0.0,WeatherDisplay:10.37,2013-06-08 10:50:00,
2013-06-08 05:53:00,57.6,53.1,29.83,South,182,0.2,2.3,85,0.00,CLR,,0.00,0.0,WeatherDisplay:10.37,2013-06-08 10:53:00,
2013-06-08 05:55:00,57.6,53.1,29.83,SSE,155,1.9,3.5,85,0.00,CLR,,0.00,0.0,WeatherDisplay:10.37,2013-06-08 10:55:00,
2013-06-08 05:58:00,57.8,53.3,29.83,SE,143,1.3,3.5,85,0.00,CLR,,0.00,0.0,WeatherDisplay:10.37,2013-06-08 10:58:00,
2013-06-08 06:00:00,58.0,53.5,29.83,SSE,157,0.0,1.2,85,0.00,CLR,,0.00,0.0,WeatherDisplay:10.37,2013-06-08 11:00:00,
2013-06-08 06:03:00,58.0,53.2,29.83,SSE,166,0.4,3.5,84,0.00,CLR,,0.00,5.0,WeatherDisplay:10.37,2013-06-08 11:03:00,
2013-06-08 06:04:00,58.0,53.2,29.83,South,179,0.6,2.3,84,0.00,CLR,,0.00,7.0,WeatherDisplay:10.37,2013-06-08 11:04:00,
2013-06-08 06:05:00,58.1,53.0,29.83,South,191,1.3,2.3,83,0.00,CLR,,0.00,7.0,WeatherDisplay:10.37,2013-06-08 11:05:00,
2013-06-08 06:08:00,58.4,53.3,29.84,South,178,3.0,3.5,83,0.00,CLR,,0.00,9.0,WeatherDisplay:10.37,2013-06-08 11:08:00,
2013-06-08 06:10:00,58.6,53.5,29.84,SSE,159,1.5,3.5,83,0.00,CLR,,0.00,9.0,WeatherDisplay:10.37,2013-06-08 11:10:00,
2013-06-08 06:11:00,58.7,53.5,29.84,SSW,196,3.2,4.6,83,0.00,CLR,,0.00,9.0,WeatherDisplay:10.37,2013-06-08 11:11:00,
2013-06-08 06:13:00,58.9,53.4,29.84,South,186,3.1,4.6,82,0.00,CLR,,0.00,11.0,WeatherDisplay:10.37,2013-06-08 11:13:00,
2013-06-08 06:14:00,58.9,53.4,29.84,SSW,203,3.0,4.6,82,0.00,CLR,,0.00,11.0,WeatherDisplay:10.37,2013-06-08 11:14:00,
2013-06-08 06:15:00,58.9,53.4,29.84,SSW,200,2.4,4.6,82,0.00,CLR,,0.00,12.0,WeatherDisplay:10.37,2013-06-08 11:15:00,
2013-06-08 06:16:00,58.9,53.4,29.84,South,177,1.2,4.0,82,0.00,CLR,,0.00,12.0,WeatherDisplay:10.37,2013-06-08 11:16:00,
2013-06-08 06:19:00,58.8,53.3,29.84,South,175,2.6,5.8,82,0.00,BKN,,0.00,14.0,WeatherDisplay:10.37,2013-06-08 11:19:00,
2013-06-08 06:20:00,58.8,53.3,29.84,SSE,163,2.4,3.5,82,0.00,BKN,,0.00,14.0,WeatherDisplay:10.37,2013-06-08 11:20:00,
2013-06-08 06:21:00,58.9,53.4,29.84,SSE,159,1.4,2.3,82,0.00,BKN,,0.00,16.0,WeatherDisplay:10.37,2013-06-08 11:21:00,
2013-06-08 06:22:00,58.9,53.4,29.84,South,178,1.6,2.3,82,0.00,BKN,,0.00,16.0,WeatherDisplay:10.37,2013-06-08 11:22:00,
2013-06-08 06:24:00,58.8,53.3,29.84,South,169,1.8,3.0,82,0.00,BKN,,0.00,16.0,WeatherDisplay:10.37,2013-06-08 11:24:00,
2013-06-08 06:25:00,58.9,53.4,29.84,South,169,3.0,5.8,82,0.00,BKN,,0.00,16.0,WeatherDisplay:10.37,2013-06-08 11:25:00,
2013-06-08 06:27:00,58.9,53.4,29.84,SE,138,1.3,2.3,82,0.00,BKN,,0.00,18.0,WeatherDisplay:10.37,2013-06-08 11:27:00,
2013-06-08 06:28:00,58.9,53.4,29.84,South,181,2.2,3.5,82,0.00,BKN,,0.00,18.0,WeatherDisplay:10.37,2013-06-08 11:28:00,
2013-06-08 06:29:00,58.9,53.4,29.84,SSE,157,2.4,3.5,82,0.00,BKN,,0.00,18.0,WeatherDisplay:10.37,2013-06-08 11:29:00,
2013-06-08 06:30:00,58.9,53.4,29.84,SSE,157,1.6,3.5,82,0.00,BKN,,0.00,18.0,WeatherDisplay:10.37,2013-06-08 11:30:00,
2013-06-08 06:33:00,58.9,53.4,29.84,South,182,0.5,1.2,82,0.00,BKN,,0.00,18.0,WeatherDisplay:10.37,2013-06-08 11:33:00,
2013-06-08 06:34:00,58.9,53.4,29.85,South,188,2.1,3.5,82,0.00,BKN,,0.00,18.0,WeatherDisplay:10.37,2013-06-08 11:34:00,
2013-06-08 06:35:00,58.9,53.4,29.85,SSE,149,1.7,3.5,82,0.00,BKN,,0.00,18.0,WeatherDisplay:10.37,2013-06-08 11:35:00,
2013-06-08 06:36:00,58.9,53.4,29.85,South,182,1.6,3.5,82,0.00,BKN,,0.00,19.0,WeatherDisplay:10.37,2013-06-08 11:36:00,
2013-06-08 06:38:00,59.0,53.5,29.85,South,184,1.4,2.3,82,0.00,BKN,,0.00,19.0,WeatherDisplay:10.37,2013-06-08 11:38:00,
2013-06-08 06:39:00,59.1,53.6,29.85,SE,143,2.1,3.5,82,0.00,BKN,,0.00,19.0,WeatherDisplay:10.37,2013-06-08 11:39:00,
2013-06-08 06:40:00,59.2,53.4,29.85,SSE,159,1.4,4.6,81,0.00,BKN,,0.00,21.0,WeatherDisplay:10.37,2013-06-08 11:40:00,
2013-06-08 06:42:00,59.2,53.7,29.85,SSE,155,1.0,2.3,82,0.00,BKN,,0.00,21.0,WeatherDisplay:10.37,2013-06-08 11:42:00,
2013-06-08 06:43:00,59.2,53.7,29.85,South,179,2.8,3.5,82,0.00,BKN,,0.00,21.0,WeatherDisplay:10.37,2013-06-08 11:43:00,
2013-06-08 06:46:00,59.3,53.8,29.85,SSE,165,2.0,3.5,82,0.00,BKN,,0.00,21.0,WeatherDisplay:10.37,2013-06-08 11:46:00,
2013-06-08 06:47:00,59.4,53.9,29.85,SSE,168,0.4,3.5,82,0.00,BKN,,0.00,23.0,WeatherDisplay:10.37,2013-06-08 11:47:00,
2013-06-08 06:48:00,59.3,53.8,29.85,SSE,167,0.1,2.0,82,0.00,BKN,,0.00,23.0,WeatherDisplay:10.37,2013-06-08 11:48:00,
2013-06-08 06:51:00,59.2,53.7,29.85,SSE,155,2.3,3.5,82,0.00,BKN,,0.00,25.0,WeatherDisplay:10.37,2013-06-08 11:51:00,
2013-06-08 06:52:00,59.3,53.8,29.85,South,173,1.4,3.5,82,0.00,BKN,,0.00,25.0,WeatherDisplay:10.37,2013-06-08 11:52:00,
2013-06-08 06:54:00,59.3,53.8,29.85,East,100,0.4,2.3,82,0.00,BKN,,0.00,25.0,WeatherDisplay:10.37,2013-06-08 11:54:00,
2013-06-08 06:56:00,59.3,54.1,29.85,SSW,195,0.0,1.2,83,0.00,BKN,,0.00,26.0,WeatherDisplay:10.37,2013-06-08 11:56:00,
2013-06-08 06:58:00,59.3,54.1,29.85,South,178,1.4,3.5,83,0.00,BKN,,0.00,26.0,WeatherDisplay:10.37,2013-06-08 11:58:00,
2013-06-08 06:59:00,59.2,54.0,29.85,South,178,0.5,2.3,83,0.00,BKN,,0.00,26.0,WeatherDisplay:10.37,2013-06-08 11:59:00,
2013-06-08 07:02:00,59.3,54.1,29.85,SE,133,1.7,3.5,83,0.00,BKN,,0.00,28.0,WeatherDisplay:10.37,2013-06-08 12:02:00,
2013-06-08 07:03:00,59.4,53.9,29.85,SSW,204,0.8,4.0,82,0.00,BKN,,0.00,28.0,WeatherDisplay:10.37,2013-06-08 12:03:00,
2013-06-08 07:04:00,59.4,54.2,29.85,SSE,158,1.4,3.5,83,0.00,BKN,,0.00,28.0,WeatherDisplay:10.37,2013-06-08 12:04:00,
2013-06-08 07:05:00,59.5,54.3,29.85,SE,143,1.3,3.5,83,0.00,BKN,,0.00,28.0,WeatherDisplay:10.37,2013-06-08 12:05:00,
2013-06-08 07:07:00,59.5,54.0,29.85,South,174,3.6,4.6,82,0.00,BKN,,0.00,30.0,WeatherDisplay:10.37,2013-06-08 12:07:00,
2013-06-08 07:08:00,59.7,54.2,29.85,SSE,148,3.3,4.6,82,0.00,BKN,,0.00,30.0,WeatherDisplay:10.37,2013-06-08 12:08:00,
2013-06-08 07:09:00,59.7,54.2,29.85,South,182,0.8,5.8,82,0.00,BKN,,0.00,30.0,WeatherDisplay:10.37,2013-06-08 12:09:00,
2013-06-08 07:10:00,59.8,54.3,29.86,SSW,202,1.7,2.3,82,0.00,BKN,,0.00,32.0,WeatherDisplay:10.37,2013-06-08 12:10:00,
2013-06-08 07:12:00,59.9,54.1,29.86,SSW,213,3.1,5.8,81,0.00,BKN,,0.00,32.0,WeatherDisplay:10.37,2013-06-08 12:12:00,
2013-06-08 07:13:00,60.0,54.2,29.85,SSE,152,1.5,3.5,81,0.00,BKN,,0.00,32.0,WeatherDisplay:10.37,2013-06-08 12:13:00,
2013-06-08 07:14:00,60.0,54.5,29.85,South,189,1.7,2.3,82,0.00,BKN,,0.00,32.0,WeatherDisplay:10.37,2013-06-08 12:14:00,
2013-06-08 07:15:00,60.1,54.6,29.85,SSW,205,1.0,3.0,82,0.00,SCT,,0.00,33.0,WeatherDisplay:10.37,2013-06-08 12:15:00,
2013-06-08 07:17:00,60.1,54.6,29.85,SSW,206,2.7,3.5,82,0.00,SCT,,0.00,33.0,WeatherDisplay:10.37,2013-06-08 12:17:00,
2013-06-08 07:18:00,60.2,54.3,29.85,SSW,198,4.3,5.8,81,0.00,SCT,,0.00,40.0,WeatherDisplay:10.37,2013-06-08 12:18:00,
2013-06-08 07:19:00,60.3,54.4,29.85,South,183,1.9,4.6,81,0.00,SCT,,0.00,39.0,WeatherDisplay:10.37,2013-06-08 12:19:00,
2013-06-08 07:20:00,60.4,54.5,29.85,SSE,168,1.6,4.6,81,0.00,FEW,,0.00,40.0,WeatherDisplay:10.37,2013-06-08 12:20:00,
2013-06-08 07:22:00,60.5,54.6,29.86,South,173,2.3,3.5,81,0.00,FEW,,0.00,47.0,WeatherDisplay:10.37,2013-06-08 12:22:00,
2013-06-08 07:23:00,60.6,54.7,29.86,SE,138,1.5,3.5,81,0.00,FEW,,0.00,42.0,WeatherDisplay:10.37,2013-06-08 12:23:00,
2013-06-08 07:24:00,60.7,54.8,29.86,South,172,1.9,3.5,81,0.00,CLR,,0.00,44.0,WeatherDisplay:10.37,2013-06-08 12:24:00,
2013-06-08 07:25:00,60.7,54.8,29.86,SSE,151,2.4,3.5,81,0.00,CLR,,0.00,37.0,WeatherDisplay:10.37,2013-06-08 12:25:00,
2013-06-08 07:27:00,60.8,54.6,29.86,ESE,115,2.7,4.6,80,0.00,CLR,,0.00,40.0,WeatherDisplay:10.37,2013-06-08 12:27:00,
2013-06-08 07:28:00,60.9,54.7,29.86,SSW,195,2.4,3.5,80,0.00,CLR,,0.00,49.0,WeatherDisplay:10.37,2013-06-08 12:28:00,
2013-06-08 07:29:00,60.9,54.7,29.86,South,179,2.1,4.6,80,0.00,CLR,,0.00,42.0,WeatherDisplay:10.37,2013-06-08 12:29:00,
2013-06-08 07:30:00,60.9,54.7,29.86,South,185,1.8,3.5,80,0.00,CLR,,0.00,53.0,WeatherDisplay:10.37,2013-06-08 12:30:00,
2013-06-08 07:32:00,61.2,54.6,29.86,South,191,0.4,3.5,79,0.00,CLR,,0.00,95.0,WeatherDisplay:10.37,2013-06-08 12:32:00,
2013-06-08 07:33:00,61.2,55.0,29.86,SSW,213,0.3,2.0,80,0.00,CLR,,0.00,139.0,WeatherDisplay:10.37,2013-06-08 12:33:00,
2013-06-08 07:34:00,61.3,55.1,29.86,South,175,1.8,2.3,80,0.00,CLR,,0.00,156.0,WeatherDisplay:10.37,2013-06-08 12:34:00,
2013-06-08 07:35:00,61.3,55.1,29.86,South,175,1.5,3.5,80,0.00,CLR,,0.00,158.0,WeatherDisplay:10.37,2013-06-08 12:35:00,
2013-06-08 07:37:00,61.5,54.9,29.85,SSE,164,1.0,3.5,79,0.00,CLR,,0.00,153.0,WeatherDisplay:10.37,2013-06-08 12:37:00,
2013-06-08 07:38:00,61.6,55.4,29.85,SSE,147,0.6,5.0,80,0.00,CLR,,0.00,169.0,WeatherDisplay:10.37,2013-06-08 12:38:00,
2013-06-08 07:39:00,61.6,55.4,29.85,South,191,3.2,5.8,80,0.00,CLR,,0.00,176.0,WeatherDisplay:10.37,2013-06-08 12:39:00,
2013-06-08 07:40:00,61.7,55.1,29.85,South,169,1.5,5.8,79,0.00,CLR,,0.00,176.0,WeatherDisplay:10.37,2013-06-08 12:40:00,
2013-06-08 07:42:00,61.8,55.2,29.85,South,190,1.4,5.0,79,0.00,CLR,,0.00,185.0,WeatherDisplay:10.37,2013-06-08 12:42:00,
2013-06-08 07:44:00,62.0,55.4,29.85,SSW,202,2.1,5.8,79,0.00,CLR,,0.00,181.0,WeatherDisplay:10.37,2013-06-08 12:44:00,
2013-06-08 07:45:00,62.2,56.0,29.85,SSW,209,1.6,4.0,80,0.00,CLR,,0.00,83.0,WeatherDisplay:10.37,2013-06-08 12:45:00,
2013-06-08 07:47:00,62.3,55.4,29.85,South,169,2.7,4.6,78,0.00,CLR,,0.00,49.0,WeatherDisplay:10.37,2013-06-08 12:47:00,
2013-06-08 07:49:00,62.5,55.2,29.85,SSW,204,4.3,5.0,77,0.00,OVC,,0.00,49.0,WeatherDisplay:10.37,2013-06-08 12:49:00,
2013-06-08 07:50:00,62.6,55.6,29.85,South,185,1.5,3.5,78,0.00,OVC,,0.00,77.0,WeatherDisplay:10.37,2013-06-08 12:50:00,
2013-06-08 07:52:00,62.8,55.5,29.85,SSE,164,2.9,6.9,77,0.00,OVC,,0.00,70.0,WeatherDisplay:10.37,2013-06-08 12:52:00,
2013-06-08 07:54:00,63.0,55.7,29.85,SE,143,2.7,6.9,77,0.00,OVC,,0.00,176.0,WeatherDisplay:10.37,2013-06-08 12:54:00,
2013-06-08 07:57:00,63.1,55.4,29.85,SE,139,1.9,4.6,76,0.00,OVC,,0.00,190.0,WeatherDisplay:10.37,2013-06-08 12:57:00,
2013-06-08 07:58:00,63.2,55.5,29.86,ESE,121,2.0,3.5,76,0.00,OVC,,0.00,181.0,WeatherDisplay:10.37,2013-06-08 12:58:00,
2013-06-08 07:59:00,63.3,55.2,29.86,SE,144,3.7,6.9,75,0.00,OVC,,0.00,81.0,WeatherDisplay:10.37,2013-06-08 12:59:00,
2013-06-08 08:02:00,63.4,55.3,29.86,South,172,3.3,6.9,75,0.00,OVC,,0.00,107.0,WeatherDisplay:10.37,2013-06-08 13:02:00,
2013-06-08 08:03:00,63.5,55.4,29.86,South,170,3.5,5.0,75,0.00,OVC,,0.00,86.0,WeatherDisplay:10.37,2013-06-08 13:03:00,
2013-06-08 08:04:00,63.5,55.1,29.86,South,171,3.5,8.1,74,0.00,OVC,,0.00,105.0,WeatherDisplay:10.37,2013-06-08 13:04:00,
2013-06-08 08:07:00,63.8,55.4,29.86,SSW,202,1.6,3.5,74,0.00,OVC,,0.00,70.0,WeatherDisplay:10.37,2013-06-08 13:07:00,
2013-06-08 08:08:00,63.8,55.4,29.86,South,187,2.9,5.0,74,0.00,OVC,,0.00,70.0,WeatherDisplay:10.37,2013-06-08 13:08:00,
2013-06-08 08:09:00,63.9,55.1,29.86,SSE,167,4.4,5.8,73,0.00,OVC,,0.00,253.0,WeatherDisplay:10.37,2013-06-08 13:09:00,
2013-06-08 08:10:00,63.9,55.1,29.86,SW,232,4.3,8.1,73,0.00,OVC,,0.00,253.0,WeatherDisplay:10.37,2013-06-08 13:10:00,
2013-06-08 08:12:00,64.0,55.2,29.86,SSW,203,2.5,3.5,73,0.00,OVC,,0.00,104.0,WeatherDisplay:10.37,2013-06-08 13:12:00,
2013-06-08 08:13:00,64.1,55.3,29.86,SSW,203,1.8,3.5,73,0.00,OVC,,0.00,97.0,WeatherDisplay:10.37,2013-06-08 13:13:00,
2013-06-08 08:14:00,64.3,55.5,29.86,SSW,195,4.4,6.9,73,0.00,OVC,,0.00,171.0,WeatherDisplay:10.37,2013-06-08 13:14:00,
2013-06-08 08:15:00,64.4,55.9,29.86,South,190,3.2,6.9,74,0.00,OVC,,0.00,97.0,WeatherDisplay:10.37,2013-06-08 13:15:00,
2013-06-08 08:18:00,64.7,55.5,29.86,South,171,3.5,6.9,72,0.00,OVC,,0.00,278.0,WeatherDisplay:10.37,2013-06-08 13:18:00,
2013-06-08 08:20:00,64.8,55.6,29.86,SSE,158,4.8,6.9,72,0.00,OVC,,0.00,279.0,WeatherDisplay:10.37,2013-06-08 13:20:00,
2013-06-08 08:23:00,65.1,55.5,29.86,South,178,4.0,6.9,71,0.00,OVC,,0.00,323.0,WeatherDisplay:10.37,2013-06-08 13:23:00,
2013-06-08 08:25:00,65.3,55.3,29.86,SSW,201,3.3,5.8,70,0.00,OVC,,0.00,334.0,WeatherDisplay:10.37,2013-06-08 13:25:00,
2013-06-08 08:28:00,65.8,55.7,29.86,South,186,5.3,9.2,70,0.00,OVC,,0.00,336.0,WeatherDisplay:10.37,2013-06-08 13:28:00,
2013-06-08 08:30:00,66.0,55.9,29.86,SSE,147,2.9,8.1,70,0.00,OVC,,0.00,332.0,WeatherDisplay:10.37,2013-06-08 13:30:00,
2013-06-08 08:33:00,66.4,55.9,29.86,South,169,4.2,9.2,69,0.00,OVC,,0.00,348.0,WeatherDisplay:10.37,2013-06-08 13:33:00,
2013-06-08 08:35:00,66.6,56.1,29.85,South,179,4.4,6.0,69,0.00,OVC,,0.00,360.0,WeatherDisplay:10.37,2013-06-08 13:35:00,
2013-06-08 08:38:00,67.1,56.2,29.86,SSE,167,3.6,8.1,68,0.00,OVC,,0.00,359.0,WeatherDisplay:10.37,2013-06-08 13:38:00,
2013-06-08 08:39:00,67.2,56.3,29.86,SSE,157,4.9,8.1,68,0.00,OVC,,0.00,359.0,WeatherDisplay:10.37,2013-06-08 13:39:00,
2013-06-08 08:40:00,67.3,56.0,29.86,South,190,4.8,11.0,67,0.00,OVC,,0.00,359.0,WeatherDisplay:10.37,2013-06-08 13:40:00,
2013-06-08 08:44:00,67.5,55.7,29.86,SSE,153,3.9,8.1,66,0.00,OVC,,0.00,364.0,WeatherDisplay:10.37,2013-06-08 13:44:00,
2013-06-08 08:45:00,67.6,56.2,29.86,SSE,160,3.2,5.0,67,0.00,OVC,,0.00,374.0,WeatherDisplay:10.37,2013-06-08 13:45:00,
2013-06-08 08:49:00,67.9,55.7,29.86,South,184,6.2,10.4,65,0.00,OVC,,0.00,362.0,WeatherDisplay:10.37,2013-06-08 13:49:00,
2013-06-08 08:50:00,67.8,55.2,29.86,SSE,167,4.0,6.9,64,0.00,OVC,,0.00,371.0,WeatherDisplay:10.37,2013-06-08 13:50:00,
2013-06-08 08:51:00,67.8,55.6,29.86,SSW,193,4.1,6.9,65,0.00,OVC,,0.00,371.0,WeatherDisplay:10.37,2013-06-08 13:51:00,
2013-06-08 08:54:00,67.8,55.7,29.85,South,180,6.0,12.0,65,0.00,OVC,,0.00,399.0,WeatherDisplay:10.37,2013-06-08 13:54:00,
2013-06-08 08:55:00,67.9,55.7,29.85,SSE,155,4.6,11.5,65,0.00,OVC,,0.00,403.0,WeatherDisplay:10.37,2013-06-08 13:55:00,
2013-06-08 08:57:00,67.9,55.7,29.85,SSE,166,4.3,10.4,65,0.00,OVC,,0.00,413.0,WeatherDisplay:10.37,2013-06-08 13:57:00,
2013-06-08 08:59:00,68.2,56.4,29.85,East,84,4.4,11.5,66,0.00,OVC,,0.00,410.0,WeatherDisplay:10.37,2013-06-08 13:59:00,
2013-06-08 09:00:00,68.3,55.6,29.85,SSE,156,1.6,4.6,64,0.00,OVC,,0.00,427.0,WeatherDisplay:10.37,2013-06-08 14:00:00,
2013-06-08 09:02:00,68.4,56.6,29.85,SSE,155,1.2,3.5,66,0.00,OVC,,0.00,434.0,WeatherDisplay:10.37,2013-06-08 14:02:00,
2013-06-08 09:04:00,68.9,55.8,29.85,SSE,149,3.7,6.9,63,0.00,OVC,,0.00,457.0,WeatherDisplay:10.37,2013-06-08 14:04:00,
2013-06-08 09:05:00,68.9,55.8,29.85,SSW,201,4.9,8.0,63,0.00,OVC,,0.00,462.0,WeatherDisplay:10.37,2013-06-08 14:05:00,
2013-06-08 09:06:00,69.0,55.9,29.85,SSE,155,6.8,9.2,63,0.00,OVC,,0.00,466.0,WeatherDisplay:10.37,2013-06-08 14:06:00,
2013-06-08 09:07:00,69.1,56.0,29.85,SSW,200,4.2,11.0,63,0.00,OVC,,0.00,466.0,WeatherDisplay:10.37,2013-06-08 14:07:00,
2013-06-08 09:10:00,69.3,56.2,29.85,South,185,3.3,8.1,63,0.00,OVC,,0.00,455.0,WeatherDisplay:10.37,2013-06-08 14:10:00,
2013-06-08 09:11:00,69.4,56.7,29.85,South,190,4.1,6.0,64,0.00,OVC,,0.00,478.0,WeatherDisplay:10.37,2013-06-08 14:11:00,
2013-06-08 09:12:00,69.5,55.9,29.85,SSE,159,5.8,11.5,62,0.00,OVC,,0.00,475.0,WeatherDisplay:10.37,2013-06-08 14:12:00,
2013-06-08 09:13:00,69.6,56.0,29.85,SSW,205,3.2,9.2,62,0.00,OVC,,0.00,466.0,WeatherDisplay:10.37,2013-06-08 14:13:00,
2013-06-08 09:15:00,69.7,56.1,29.85,South,182,4.1,9.2,62,0.00,OVC,,0.00,476.0,WeatherDisplay:10.37,2013-06-08 14:15:00,
2013-06-08 09:16:00,69.8,56.6,29.85,SSE,148,4.1,5.8,63,0.00,OVC,,0.00,487.0,WeatherDisplay:10.37,2013-06-08 14:16:00,
2013-06-08 09:17:00,69.9,56.7,29.85,SSE,147,2.9,6.9,63,0.00,OVC,,0.00,492.0,WeatherDisplay:10.37,2013-06-08 14:17:00,
2013-06-08 09:18:00,69.9,56.7,29.85,SSW,201,3.4,6.0,63,0.00,OVC,,0.00,499.0,WeatherDisplay:10.37,2013-06-08 14:18:00,
2013-06-08 09:20:00,70.3,57.1,29.85,South,186,2.8,5.8,63,0.00,OVC,,0.00,508.0,WeatherDisplay:10.37,2013-06-08 14:20:00,
2013-06-08 09:21:00,70.7,57.0,29.85,SSE,161,1.6,3.5,62,0.00,OVC,,0.00,515.0,WeatherDisplay:10.37,2013-06-08 14:21:00,
2013-06-08 09:22:00,70.8,56.7,29.85,ESE,121,3.7,8.1,61,0.00,OVC,,0.00,519.0,WeatherDisplay:10.37,2013-06-08 14:22:00,
2013-06-08 09:23:00,70.8,56.7,29.85,SW,232,4.8,8.1,61,0.00,OVC,,0.00,526.0,WeatherDisplay:10.37,2013-06-08 14:23:00,
2013-06-08 09:25:00,70.9,56.8,29.85,SE,131,4.0,8.1,61,0.00,OVC,,0.00,531.0,WeatherDisplay:10.37,2013-06-08 14:25:00,
2013-06-08 09:27:00,71.0,56.4,29.85,SSW,200,2.8,6.9,60,0.00,OVC,,0.00,534.0,WeatherDisplay:10.37,2013-06-08 14:27:00,
2013-06-08 09:28:00,71.0,56.4,29.85,SSE,147,6.4,8.1,60,0.00,OVC,,0.00,559.0,WeatherDisplay:10.37,2013-06-08 14:28:00,
2013-06-08 09:30:00,71.0,56.4,29.85,SE,132,5.1,6.9,60,0.00,OVC,,0.00,578.0,WeatherDisplay:10.37,2013-06-08 14:30:00,
2013-06-08 09:32:00,71.1,57.0,29.85,South,169,1.7,6.9,61,0.00,OVC,,0.00,592.0,WeatherDisplay:10.37,2013-06-08 14:32:00,
2013-06-08 09:33:00,71.3,56.7,29.85,SSE,159,3.3,5.0,60,0.00,OVC,,0.00,599.0,WeatherDisplay:10.37,2013-06-08 14:33:00,
2013-06-08 09:36:00,71.5,56.4,29.85,SSE,153,5.3,11.5,59,0.00,OVC,,0.00,587.0,WeatherDisplay:10.37,2013-06-08 14:36:00,
2013-06-08 09:37:00,71.8,57.6,29.85,WSW,254,0.8,5.8,61,0.00,OVC,,0.00,610.0,WeatherDisplay:10.37,2013-06-08 14:37:00,
2013-06-08 09:38:00,72.0,57.4,29.85,SSE,153,1.1,2.3,60,0.00,OVC,,0.00,610.0,WeatherDisplay:10.37,2013-06-08 14:38:00,
2013-06-08 09:41:00,72.5,57.8,29.85,South,177,0.5,5.8,60,0.00,OVC,,0.00,643.0,WeatherDisplay:10.37,2013-06-08 14:41:00,
2013-06-08 09:42:00,73.0,57.3,29.85,South,186,2.2,5.0,58,0.00,OVC,,0.00,687.0,WeatherDisplay:10.37,2013-06-08 14:42:00,
2013-06-08 09:43:00,73.1,56.5,29.85,SSW,203,4.5,8.0,56,0.00,OVC,,0.00,687.0,WeatherDisplay:10.37,2013-06-08 14:43:00,
2013-06-08 09:46:00,73.1,56.5,29.85,SSE,160,3.3,9.2,56,0.00,OVC,,0.00,779.0,WeatherDisplay:10.37,2013-06-08 14:46:00,
2013-06-08 09:47:00,73.1,56.5,29.85,South,180,6.0,9.2,56,0.00,OVC,,0.00,758.0,WeatherDisplay:10.37,2013-06-08 14:47:00,
2013-06-08 09:48:00,73.1,56.0,29.85,ESE,112,5.6,9.2,55,0.00,OVC,,0.00,758.0,WeatherDisplay:10.37,2013-06-08 14:48:00,
2013-06-08 09:49:00,73.1,56.0,29.85,SSE,152,2.4,6.9,55,0.00,OVC,,0.00,758.0,WeatherDisplay:10.37,2013-06-08 14:49:00,
2013-06-08 09:52:00,73.4,57.2,29.85,SSE,167,1.9,8.0,57,0.00,OVC,,0.00,392.0,WeatherDisplay:10.37,2013-06-08 14:52:00,
2013-06-08 09:53:00,73.5,56.3,29.85,SSW,208,6.0,8.1,55,0.00,OVC,,0.00,392.0,WeatherDisplay:10.37,2013-06-08 14:53:00,
2013-06-08 09:54:00,73.4,56.7,29.85,WSW,238,4.7,10.4,56,0.00,OVC,,0.00,649.0,WeatherDisplay:10.37,2013-06-08 14:54:00,
2013-06-08 09:57:00,73.6,56.4,29.84,SSE,165,1.5,4.6,55,0.00,OVC,,0.00,724.0,WeatherDisplay:10.37,2013-06-08 14:57:00,
2013-06-08 09:58:00,73.7,57.0,29.85,South,171,2.0,3.5,56,0.00,OVC,,0.00,731.0,WeatherDisplay:10.37,2013-06-08 14:58:00,
2013-06-08 09:59:00,74.0,57.8,29.84,SSE,166,3.1,8.1,57,0.00,OVC,,0.00,740.0,WeatherDisplay:10.37,2013-06-08 14:59:00,
2013-06-08 10:02:00,74.4,57.2,29.85,South,183,1.7,6.9,55,0.00,OVC,,0.00,779.0,WeatherDisplay:10.37,2013-06-08 15:02:00,
2013-06-08 10:03:00,74.5,56.8,29.85,SE,144,3.1,5.0,54,0.00,OVC,,0.00,798.0,WeatherDisplay:10.37,2013-06-08 15:03:00,
2013-06-08 10:04:00,74.6,56.9,29.85,SSW,196,3.8,5.8,54,0.00,OVC,,0.00,817.0,WeatherDisplay:10.37,2013-06-08 15:04:00,
2013-06-08 10:07:00,75.1,56.8,29.85,SSE,161,2.1,3.5,53,0.00,OVC,,0.00,882.0,WeatherDisplay:10.37,2013-06-08 15:07:00,
2013-06-08 10:08:00,75.2,57.4,29.85,SSE,154,2.6,6.0,54,0.00,OVC,,0.00,882.0,WeatherDisplay:10.37,2013-06-08 15:08:00,
2013-06-08 10:09:00,75.4,57.1,29.85,South,172,3.7,5.8,53,0.00,OVC,,0.00,870.0,WeatherDisplay:10.37,2013-06-08 15:09:00,
2013-06-08 10:13:00,75.6,56.7,29.85,SW,222,5.6,10.4,52,0.00,OVC,,0.00,559.0,WeatherDisplay:10.37,2013-06-08 15:13:00,
2013-06-08 10:14:00,74.9,57.1,29.85,SSE,153,3.6,6.9,54,0.00,OVC,,0.00,179.0,WeatherDisplay:10.37,2013-06-08 15:14:00,
2013-06-08 10:18:00,73.7,56.0,29.85,South,173,6.3,9.2,54,0.00,OVC,,0.00,141.0,WeatherDisplay:10.37,2013-06-08 15:18:00,
2013-06-08 10:19:00,73.1,56.0,29.85,SE,141,3.1,8.1,55,0.00,OVC,,0.00,127.0,WeatherDisplay:10.37,2013-06-08 15:19:00,
2013-06-08 10:23:00,72.2,56.1,29.85,SW,219,3.6,8.1,57,0.00,OVC,,0.00,105.0,WeatherDisplay:10.37,2013-06-08 15:23:00,
2013-06-08 10:24:00,72.1,56.0,29.85,South,188,2.0,8.0,57,0.00,OVC,,0.00,97.0,WeatherDisplay:10.37,2013-06-08 15:24:00,
2013-06-08 10:25:00,71.9,55.8,29.85,SW,229,1.2,4.0,57,0.00,OVC,,0.00,91.0,WeatherDisplay:10.37,2013-06-08 15:25:00,
2013-06-08 10:28:00,71.6,56.0,29.85,South,187,3.3,4.6,58,0.00,OVC,,0.00,79.0,WeatherDisplay:10.37,2013-06-08 15:28:00,
2013-06-08 10:29:00,71.5,56.4,29.85,SSE,165,1.8,4.6,59,0.00,OVC,,0.00,74.0,WeatherDisplay:10.37,2013-06-08 15:29:00,
2013-06-08 10:30:00,71.4,56.3,29.85,SSE,165,1.8,4.6,59,0.00,OVC,,0.00,74.0,WeatherDisplay:10.37,2013-06-08 15:30:00,
2013-06-08 10:33:00,71.2,56.6,29.85,SSE,150,0.5,2.3,60,0.00,OVC,,0.00,74.0,WeatherDisplay:10.37,2013-06-08 15:33:00,
2013-06-08 10:34:00,71.1,56.5,29.85,SSE,150,0.4,1.2,60,0.00,OVC,,0.00,76.0,WeatherDisplay:10.37,2013-06-08 15:34:00,
2013-06-08 10:35:00,71.1,57.4,29.85,SSE,163,1.4,5.0,62,0.00,OVC,,0.00,76.0,WeatherDisplay:10.37,2013-06-08 15:35:00,
2013-06-08 10:36:00,71.1,57.0,29.85,SSE,160,2.5,3.5,61,0.00,OVC,,0.00,77.0,WeatherDisplay:10.37,2013-06-08 15:36:00,
2013-06-08 10:38:00,71.1,57.0,29.85,SSE,167,1.4,3.5,61,0.00,OVC,,0.00,83.0,WeatherDisplay:10.37,2013-06-08 15:38:00,
2013-06-08 10:39:00,71.1,57.0,29.85,SSE,153,2.1,3.5,61,0.00,OVC,,0.00,84.0,WeatherDisplay:10.37,2013-06-08 15:39:00,
2013-06-08 10:41:00,71.0,56.4,29.85,SSE,167,3.6,10.4,60,0.00,OVC,,0.00,84.0,WeatherDisplay:10.37,2013-06-08 15:41:00,
2013-06-08 10:42:00,70.9,56.3,29.85,SSW,192,4.2,5.8,60,0.00,OVC,,0.00,84.0,WeatherDisplay:10.37,2013-06-08 15:42:00,
2013-06-08 10:43:00,70.9,56.8,29.85,South,175,1.6,6.9,61,0.00,OVC,,0.00,84.0,WeatherDisplay:10.37,2013-06-08 15:43:00,
2013-06-08 10:44:00,70.9,57.2,29.84,SSE,163,1.5,4.0,62,0.00,OVC,,0.00,88.0,WeatherDisplay:10.37,2013-06-08 15:44:00,
2013-06-08 10:47:00,70.7,56.1,29.85,South,187,5.2,10.4,60,0.00,OVC,,0.00,111.0,WeatherDisplay:10.37,2013-06-08 15:47:00,
2013-06-08 10:48:00,70.7,56.6,29.84,WSW,245,3.2,5.8,61,0.00,OVC,,0.00,139.0,WeatherDisplay:10.37,2013-06-08 15:48:00,
2013-06-08 10:49:00,70.7,56.1,29.84,SSE,161,3.6,5.8,60,0.00,OVC,,0.00,155.0,WeatherDisplay:10.37,2013-06-08 15:49:00,
2013-06-08 10:52:00,70.9,56.8,29.84,South,177,2.0,3.5,61,0.00,OVC,,0.00,186.0,WeatherDisplay:10.37,2013-06-08 15:52:00,
2013-06-08 10:53:00,71.0,57.3,29.84,SSW,202,1.6,3.5,62,0.00,OVC,,0.00,188.0,WeatherDisplay:10.37,2013-06-08 15:53:00,
2013-06-08 10:55:00,71.2,56.6,29.84,SSE,165,2.6,4.6,60,0.00,OVC,,0.00,200.0,WeatherDisplay:10.37,2013-06-08 15:55:00,
2013-06-08 10:57:00,71.2,57.1,29.84,SSE,154,1.9,4.6,61,0.00,OVC,,0.00,211.0,WeatherDisplay:10.37,2013-06-08 15:57:00,
2013-06-08 10:58:00,71.3,57.2,29.84,SW,229,2.5,5.0,61,0.00,OVC,,0.00,213.0,WeatherDisplay:10.37,2013-06-08 15:58:00,
2013-06-08 10:59:00,71.4,56.8,29.84,SE,136,2.6,4.6,60,0.00,OVC,,0.00,211.0,WeatherDisplay:10.37,2013-06-08 15:59:00,
2013-06-08 11:01:00,71.6,56.5,29.84,South,184,2.5,3.5,59,0.00,OVC,,0.00,216.0,WeatherDisplay:10.37,2013-06-08 16:01:00,
2013-06-08 11:02:00,71.8,56.2,29.84,SSE,160,5.8,9.2,58,0.00,OVC,,0.00,248.0,WeatherDisplay:10.37,2013-06-08 16:02:00,
2013-06-08 11:03:00,71.9,56.3,29.83,SSE,153,3.8,10.4,58,0.00,OVC,,0.00,248.0,WeatherDisplay:10.37,2013-06-08 16:03:00,
2013-06-08 11:04:00,72.1,56.5,29.84,SW,232,1.8,5.8,58,0.00,OVC,,0.00,385.0,WeatherDisplay:10.37,2013-06-08 16:04:00,
2013-06-08 11:06:00,72.5,56.4,29.84,SSE,160,4.2,5.8,57,0.00,OVC,,0.00,786.0,WeatherDisplay:10.37,2013-06-08 16:06:00,
2013-06-08 11:07:00,73.0,56.4,29.83,SSE,149,4.6,9.2,56,0.00,OVC,,0.00,772.0,WeatherDisplay:10.37,2013-06-08 16:07:00,
2013-06-08 11:08:00,73.1,56.5,29.83,SW,234,5.0,9.2,56,0.00,OVC,,0.00,758.0,WeatherDisplay:10.37,2013-06-08 16:08:00,
2013-06-08 11:09:00,73.4,56.2,29.83,South,174,3.2,5.8,55,0.00,OVC,,0.00,770.0,WeatherDisplay:10.37,2013-06-08 16:09:00,
2013-06-08 11:11:00,73.9,56.2,29.83,SSW,206,3.8,6.0,54,0.00,OVC,,0.00,772.0,WeatherDisplay:10.37,2013-06-08 16:11:00,
2013-06-08 11:12:00,74.2,57.0,29.83,SSE,160,4.6,6.9,55,0.00,OVC,,0.00,761.0,WeatherDisplay:10.37,2013-06-08 16:12:00,
2013-06-08 11:13:00,74.3,56.6,29.83,SSE,157,3.4,7.0,54,0.00,OVC,,0.00,766.0,WeatherDisplay:10.37,2013-06-08 16:13:00,
2013-06-08 11:14:00,74.4,56.7,29.83,SE,146,5.1,8.0,54,0.00,OVC,,0.00,768.0,WeatherDisplay:10.37,2013-06-08 16:14:00,
2013-06-08 11:17:00,75.1,58.3,29.83,East,97,2.9,6.9,56,0.00,OVC,,0.00,772.0,WeatherDisplay:10.37,2013-06-08 16:17:00,
2013-06-08 11:18:00,75.5,58.2,29.83,NNE,13,4.4,10.4,55,0.00,OVC,,0.00,779.0,WeatherDisplay:10.37,2013-06-08 16:18:00,
2013-06-08 11:19:00,75.5,58.2,29.83,NNE,13,3.2,10.4,55,0.00,OVC,,0.00,775.0,WeatherDisplay:10.37,2013-06-08 16:19:00,
2013-06-08 11:22:00,75.6,58.8,29.83,SSE,154,2.1,6.0,56,0.00,OVC,,0.00,784.0,WeatherDisplay:10.37,2013-06-08 16:22:00,
2013-06-08 11:23:00,75.7,57.9,29.83,SE,136,3.3,5.8,54,0.00,OVC,,0.00,780.0,WeatherDisplay:10.37,2013-06-08 16:23:00,
2013-06-08 11:24:00,75.8,58.5,29.83,SSE,156,3.0,10.0,55,0.00,OVC,,0.00,780.0,WeatherDisplay:10.37,2013-06-08 16:24:00,
2013-06-08 11:27:00,76.2,56.7,29.83,SSE,150,4.5,8.1,51,0.00,OVC,,0.00,809.0,WeatherDisplay:10.37,2013-06-08 16:27:00,
2013-06-08 11:28:00,76.2,56.7,29.83,SSW,202,5.8,8.1,51,0.00,OVC,,0.00,810.0,WeatherDisplay:10.37,2013-06-08 16:28:00,
2013-06-08 11:29:00,76.1,56.1,29.83,South,183,5.1,10.0,50,0.00,OVC,,0.00,796.0,WeatherDisplay:10.37,2013-06-08 16:29:00,
2013-06-08 11:30:00,76.1,56.1,29.83,South,177,3.5,10.4,50,0.00,OVC,,0.00,798.0,WeatherDisplay:10.37,2013-06-08 16:30:00,
2013-06-08 11:32:00,76.1,56.7,29.82,SSE,148,8.4,12.7,51,0.00,OVC,,0.00,810.0,WeatherDisplay:10.37,2013-06-08 16:32:00,
2013-06-08 11:33:00,76.1,56.7,29.82,SSE,161,7.5,12.7,51,0.00,OVC,,0.00,810.0,WeatherDisplay:10.37,2013-06-08 16:33:00,
2013-06-08 11:34:00,76.1,56.7,29.82,SSE,154,7.5,10.4,51,0.00,OVC,,0.00,812.0,WeatherDisplay:10.37,2013-06-08 16:34:00,
2013-06-08 11:35:00,76.1,57.2,29.82,SSW,211,5.3,9.2,52,0.00,OVC,,0.00,847.0,WeatherDisplay:10.37,2013-06-08 16:35:00,
2013-06-08 11:38:00,76.4,59.5,29.82,SSE,148,2.0,7.0,56,0.00,OVC,,0.00,853.0,WeatherDisplay:10.37,2013-06-08 16:38:00,
2013-06-08 11:40:00,77.0,57.5,29.82,SSE,163,6.3,11.5,51,0.00,OVC,,0.00,860.0,WeatherDisplay:10.37,2013-06-08 16:40:00,
2013-06-08 11:43:00,77.2,58.2,29.82,SSE,150,3.4,6.0,52,0.00,OVC,,0.00,872.0,WeatherDisplay:10.37,2013-06-08 16:43:00,
2013-06-08 11:45:00,77.9,59.9,29.82,ESE,109,0.9,3.5,54,0.00,OVC,,0.00,872.0,WeatherDisplay:10.37,2013-06-08 16:45:00,
2013-06-08 11:46:00,78.2,58.6,29.82,ESE,118,1.3,3.5,51,0.00,OVC,,0.00,875.0,WeatherDisplay:10.37,2013-06-08 16:46:00,
2013-06-08 11:48:00,78.3,58.1,29.82,East,80,4.5,11.5,50,0.00,OVC,,0.00,868.0,WeatherDisplay:10.37,2013-06-08 16:48:00,
2013-06-08 11:50:00,78.4,57.1,29.82,SSE,147,4.8,8.0,48,0.00,OVC,,0.00,874.0,WeatherDisplay:10.37,2013-06-08 16:50:00,
2013-06-08 11:51:00,78.4,57.1,29.82,SSW,201,8.4,16.1,48,0.00,OVC,,0.00,865.0,WeatherDisplay:10.37,2013-06-08 16:51:00,
2013-06-08 11:53:00,78.4,58.2,29.81,SSE,156,3.3,11.5,50,0.00,OVC,,0.00,865.0,WeatherDisplay:10.37,2013-06-08 16:53:00,
2013-06-08 11:54:00,78.4,57.7,29.81,SSE,159,4.3,7.0,49,0.00,OVC,,0.00,868.0,WeatherDisplay:10.37,2013-06-08 16:54:00,
2013-06-08 11:55:00,78.2,56.9,29.81,South,186,3.8,6.9,48,0.00,OVC,,0.00,840.0,WeatherDisplay:10.37,2013-06-08 16:55:00,
2013-06-08 11:56:00,78.1,56.8,29.81,SSE,155,3.4,6.9,48,0.00,OVC,,0.00,840.0,WeatherDisplay:10.37,2013-06-08 16:56:00,
2013-06-08 11:58:00,78.0,57.3,29.81,SE,127,6.5,10.4,49,0.00,OVC,,0.00,831.0,WeatherDisplay:10.37,2013-06-08 16:58:00,
2013-06-08 11:59:00,77.9,57.2,29.81,SE,138,6.1,10.0,49,0.00,OVC,,0.00,849.0,WeatherDisplay:10.37,2013-06-08 16:59:00,
2013-06-08 12:00:00,77.7,57.0,29.81,South,182,5.0,15.0,49,0.00,OVC,,0.00,844.0,WeatherDisplay:10.37,2013-06-08 17:00:00,
2013-06-08 12:01:00,77.7,57.0,29.81,South,173,4.5,15.0,49,0.00,OVC,,0.00,854.0,WeatherDisplay:10.37,2013-06-08 17:01:00,
2013-06-08 12:02:00,77.8,57.7,29.81,SE,146,5.9,10.4,50,0.00,OVC,,0.00,830.0,WeatherDisplay:10.37,2013-06-08 17:02:00,
2013-06-08 12:03:00,78.0,57.9,29.81,SSE,156,5.6,9.2,50,0.00,OVC,,0.00,791.0,WeatherDisplay:10.37,2013-06-08 17:03:00,
2013-06-08 12:04:00,78.0,57.9,29.81,SSE,165,6.0,9.2,50,0.00,OVC,,0.00,798.0,WeatherDisplay:10.37,2013-06-08 17:04:00,
2013-06-08 12:06:00,78.0,57.9,29.81,SSE,156,6.3,10.4,50,0.00,OVC,,0.00,754.0,WeatherDisplay:10.37,2013-06-08 17:06:00,
2013-06-08 12:07:00,77.9,57.2,29.80,SSW,193,4.7,8.1,49,0.00,OVC,,0.00,752.0,WeatherDisplay:10.37,2013-06-08 17:07:00,
2013-06-08 12:08:00,78.1,58.5,29.80,South,185,2.2,4.6,51,0.00,OVC,,0.00,715.0,WeatherDisplay:10.37,2013-06-08 17:08:00,
2013-06-08 12:09:00,78.1,57.9,29.80,SW,219,1.5,4.6,50,0.00,OVC,,0.00,715.0,WeatherDisplay:10.37,2013-06-08 17:09:00,
2013-06-08 12:11:00,77.9,57.8,29.80,South,180,3.9,4.6,50,0.00,OVC,,0.00,689.0,WeatherDisplay:10.37,2013-06-08 17:11:00,
2013-06-08 12:12:00,78.1,58.5,29.80,South,184,4.3,8.1,51,0.00,OVC,,0.00,684.0,WeatherDisplay:10.37,2013-06-08 17:12:00,
2013-06-08 12:14:00,78.1,56.8,29.80,SSW,198,8.6,11.5,48,0.00,OVC,,0.00,689.0,WeatherDisplay:10.37,2013-06-08 17:14:00,
2013-06-08 12:16:00,77.8,57.1,29.80,SSW,209,7.1,11.5,49,0.00,OVC,,0.00,719.0,WeatherDisplay:10.37,2013-06-08 17:16:00,
2013-06-08 12:17:00,77.8,57.1,29.80,SSW,200,9.0,11.5,49,0.00,OVC,,0.00,765.0,WeatherDisplay:10.37,2013-06-08 17:17:00,
2013-06-08 12:19:00,77.7,57.6,29.80,WSW,246,5.3,10.4,50,0.00,OVC,,0.00,816.0,WeatherDisplay:10.37,2013-06-08 17:19:00,
2013-06-08 12:22:00,77.7,57.0,29.80,South,181,8.8,12.7,49,0.00,OVC,,0.00,926.0,WeatherDisplay:10.37,2013-06-08 17:22:00,
2013-06-08 12:24:00,77.6,56.9,29.80,SSE,159,3.1,9.2,49,0.00,OVC,,0.00,926.0,WeatherDisplay:10.37,2013-06-08 17:24:00,
2013-06-08 12:27:00,78.0,57.9,29.80,SE,138,8.7,13.8,50,0.00,OVC,,0.00,921.0,WeatherDisplay:10.37,2013-06-08 17:27:00,
2013-06-08 12:28:00,77.9,57.2,29.80,SSE,153,8.6,13.8,49,0.00,OVC,,0.00,406.0,WeatherDisplay:10.37,2013-06-08 17:28:00,
2013-06-08 12:29:00,77.7,57.6,29.80,SSE,156,6.0,14.0,50,0.00,OVC,,0.00,429.0,WeatherDisplay:10.37,2013-06-08 17:29:00,
2013-06-08 12:32:00,77.9,57.8,29.80,South,176,6.1,8.0,50,0.00,OVC,,0.00,454.0,WeatherDisplay:10.37,2013-06-08 17:32:00,
2013-06-08 12:33:00,77.9,57.8,29.80,SSW,200,6.0,11.5,50,0.00,OVC,,0.00,462.0,WeatherDisplay:10.37,2013-06-08 17:33:00,
2013-06-08 12:34:00,77.8,57.7,29.80,SSE,155,3.6,6.9,50,0.00,OVC,,0.00,371.0,WeatherDisplay:10.37,2013-06-08 17:34:00,
2013-06-08 12:35:00,77.9,58.3,29.80,SSE,155,3.2,7.0,51,0.00,OVC,,0.00,371.0,WeatherDisplay:10.37,2013-06-08 17:35:00,
2013-06-08 12:37:00,77.8,58.8,29.80,South,190,2.4,6.9,52,0.00,OVC,,0.00,332.0,WeatherDisplay:10.37,2013-06-08 17:37:00,
2013-06-08 12:38:00,77.8,58.2,29.80,SSW,196,2.9,7.0,51,0.00,OVC,,0.00,332.0,WeatherDisplay:10.37,2013-06-08 17:38:00,
2013-06-08 12:40:00,77.7,58.1,29.80,SSW,204,5.2,6.9,51,0.00,OVC,,0.00,327.0,WeatherDisplay:10.37,2013-06-08 17:40:00,
2013-06-08 12:42:00,77.6,58.0,29.80,South,188,5.0,9.2,51,0.00,OVC,,0.00,404.0,WeatherDisplay:10.37,2013-06-08 17:42:00,
2013-06-08 12:43:00,77.6,58.6,29.80,SSE,163,4.1,5.8,52,0.00,OVC,,0.00,404.0,WeatherDisplay:10.37,2013-06-08 17:43:00,
2013-06-08 12:45:00,77.6,59.1,29.80,SSW,202,2.5,7.0,53,0.00,OVC,,0.00,394.0,WeatherDisplay:10.37,2013-06-08 17:45:00,
2013-06-08 12:47:00,77.5,57.9,29.80,SE,144,3.4,6.9,51,0.00,OVC,,0.00,388.0,WeatherDisplay:10.37,2013-06-08 17:47:00,
2013-06-08 12:48:00,77.3,58.3,29.80,South,188,5.7,9.2,52,0.00,OVC,,0.00,374.0,WeatherDisplay:10.37,2013-06-08 17:48:00,
2013-06-08 12:50:00,77.3,58.3,29.79,SSE,160,3.1,9.2,52,0.00,OVC,,0.00,462.0,WeatherDisplay:10.37,2013-06-08 17:50:00,
2013-06-08 12:53:00,77.6,58.6,29.79,South,184,5.1,6.9,52,0.00,OVC,,0.00,469.0,WeatherDisplay:10.37,2013-06-08 17:53:00,
2013-06-08 12:54:00,77.6,58.0,29.79,SSW,212,6.3,9.2,51,0.00,OVC,,0.00,431.0,WeatherDisplay:10.37,2013-06-08 17:54:00,
2013-06-08 12:55:00,77.7,58.7,29.79,ESE,116,2.5,8.1,52,0.00,OVC,,0.00,413.0,WeatherDisplay:10.37,2013-06-08 17:55:00,
2013-06-08 12:56:00,77.9,59.4,29.79,South,183,2.4,4.6,53,0.00,OVC,,0.00,406.0,WeatherDisplay:10.37,2013-06-08 17:56:00,
2013-06-08 12:59:00,78.5,58.9,29.79,SSE,168,6.9,12.0,51,0.00,OVC,,0.00,406.0,WeatherDisplay:10.37,2013-06-08 17:59:00,
2013-06-08 13:00:00,78.5,58.9,29.79,SE,134,4.5,10.4,51,0.00,OVC,,0.00,406.0,WeatherDisplay:10.37,2013-06-08 18:00:00,
2013-06-08 13:01:00,78.5,58.9,29.79,SSE,151,4.0,5.8,51,0.00,OVC,,0.00,752.0,WeatherDisplay:10.37,2013-06-08 18:01:00,
2013-06-08 13:04:00,78.9,60.3,29.79,SSE,150,2.9,6.9,53,0.00,OVC,,0.00,752.0,WeatherDisplay:10.37,2013-06-08 18:04:00,
2013-06-08 13:06:00,79.2,59.0,29.79,South,186,7.0,10.4,50,0.00,OVC,,0.00,905.0,WeatherDisplay:10.37,2013-06-08 18:06:00,
2013-06-08 13:07:00,79.3,58.5,29.79,SSW,194,4.9,11.5,49,0.00,OVC,,0.00,919.0,WeatherDisplay:10.37,2013-06-08 18:07:00,
2013-06-08 13:09:00,79.3,59.0,29.79,SSE,157,7.4,16.1,50,0.00,OVC,,0.00,909.0,WeatherDisplay:10.37,2013-06-08 18:09:00,
2013-06-08 13:11:00,79.5,59.8,29.79,SSW,195,3.3,5.8,51,0.00,OVC,,0.00,958.0,WeatherDisplay:10.37,2013-06-08 18:11:00,
2013-06-08 13:12:00,79.8,59.5,29.79,North,11,3.7,8.1,50,0.00,OVC,,0.00,919.0,WeatherDisplay:10.37,2013-06-08 18:12:00,
2013-06-08 13:14:00,80.1,60.9,29.78,West,275,2.3,11.5,52,0.00,OVC,,0.00,870.0,WeatherDisplay:10.37,2013-06-08 18:14:00,
2013-06-08 13:16:00,80.1,58.6,29.79,South,180,7.5,12.7,48,0.00,OVC,,0.00,782.0,WeatherDisplay:10.37,2013-06-08 18:16:00,
2013-06-08 13:17:00,79.7,58.8,29.78,SW,216,5.6,11.5,49,0.00,OVC,,0.00,782.0,WeatherDisplay:10.37,2013-06-08 18:17:00,
2013-06-08 13:19:00,79.3,58.5,29.79,SE,135,5.8,11.5,49,0.00,OVC,,0.00,856.0,WeatherDisplay:10.37,2013-06-08 18:19:00,
2013-06-08 13:20:00,79.2,60.1,29.78,ESE,110,4.8,9.2,52,0.00,OVC,,0.00,853.0,WeatherDisplay:10.37,2013-06-08 18:20:00,
2013-06-08 13:22:00,79.3,59.0,29.78,South,169,9.4,13.8,50,0.00,OVC,,0.00,960.0,WeatherDisplay:10.37,2013-06-08 18:22:00,
2013-06-08 13:24:00,80.0,60.2,29.78,SSE,147,2.8,11.5,51,0.00,OVC,,0.00,967.0,WeatherDisplay:10.37,2013-06-08 18:24:00,
2013-06-08 13:25:00,80.1,60.3,29.78,SSE,148,4.4,9.0,51,0.00,OVC,,0.00,960.0,WeatherDisplay:10.37,2013-06-08 18:25:00,
2013-06-08 13:27:00,80.1,58.6,29.78,South,187,6.3,11.5,48,0.00,OVC,,0.00,949.0,WeatherDisplay:10.37,2013-06-08 18:27:00,
2013-06-08 13:29:00,79.9,59.6,29.78,SE,128,7.6,8.1,50,0.00,OVC,,0.00,947.0,WeatherDisplay:10.37,2013-06-08 18:29:00,
2013-06-08 13:30:00,80.0,59.1,29.78,SSW,212,5.0,15.0,49,0.00,OVC,,0.00,947.0,WeatherDisplay:10.37,2013-06-08 18:30:00,
2013-06-08 13:32:00,80.3,60.0,29.78,SSE,162,3.5,10.4,50,0.00,OVC,,0.00,942.0,WeatherDisplay:10.37,2013-06-08 18:32:00,
2013-06-08 13:34:00,80.5,59.0,29.78,SSE,163,6.0,12.0,48,0.00,OVC,,0.00,958.0,WeatherDisplay:10.37,2013-06-08 18:34:00,
2013-06-08 13:35:00,80.5,59.0,29.78,South,173,4.2,9.2,48,0.00,OVC,,0.00,965.0,WeatherDisplay:10.37,2013-06-08 18:35:00,
2013-06-08 13:37:00,80.9,59.9,29.78,SE,125,4.1,12.0,49,0.00,OVC,,0.00,962.0,WeatherDisplay:10.37,2013-06-08 18:37:00,
2013-06-08 13:39:00,80.9,59.4,29.78,South,171,5.0,12.0,48,0.00,OVC,,0.00,962.0,WeatherDisplay:10.37,2013-06-08 18:39:00,
2013-06-08 13:40:00,81.0,59.5,29.77,SSE,165,6.1,8.1,48,0.00,OVC,,0.00,949.0,WeatherDisplay:10.37,2013-06-08 18:40:00,
2013-06-08 13:41:00,81.0,59.5,29.78,SE,139,6.4,11.5,48,0.00,OVC,,0.00,939.0,WeatherDisplay:10.37,2013-06-08 18:41:00,
2013-06-08 13:42:00,81.2,60.2,29.78,South,182,5.0,9.2,49,0.00,OVC,,0.00,874.0,WeatherDisplay:10.37,2013-06-08 18:42:00,
2013-06-08 13:44:00,80.8,59.3,29.78,SSE,153,5.5,11.5,48,0.00,OVC,,0.00,664.0,WeatherDisplay:10.37,2013-06-08 18:44:00,
2013-06-08 13:45:00,80.5,60.1,29.77,SSE,157,3.6,9.2,50,0.00,OVC,,0.00,664.0,WeatherDisplay:10.37,2013-06-08 18:45:00,
2013-06-08 13:46:00,80.5,60.1,29.77,South,171,2.7,9.2,50,0.00,OVC,,0.00,860.0,WeatherDisplay:10.37,2013-06-08 18:46:00,
2013-06-08 13:47:00,80.5,59.6,29.78,South,169,4.6,10.4,49,0.00,OVC,,0.00,860.0,WeatherDisplay:10.37,2013-06-08 18:47:00,
2013-06-08 13:49:00,80.2,58.7,29.77,WSW,250,3.8,6.9,48,0.00,OVC,,0.00,777.0,WeatherDisplay:10.37,2013-06-08 18:49:00,
2013-06-08 13:50:00,80.2,59.3,29.77,ENE,66,3.5,5.8,49,0.00,OVC,,0.00,777.0,WeatherDisplay:10.37,2013-06-08 18:50:00,
2013-06-08 13:51:00,80.4,60.6,29.77,East,92,1.9,4.6,51,0.00,OVC,,0.00,715.0,WeatherDisplay:10.37,2013-06-08 18:51:00,
2013-06-08 13:52:00,80.4,60.1,29.77,SE,133,1.1,3.5,50,0.00,OVC,,0.00,809.0,WeatherDisplay:10.37,2013-06-08 18:52:00,
2013-06-08 13:53:00,80.6,61.3,29.77,NE,53,1.3,3.5,52,0.00,OVC,,0.00,809.0,WeatherDisplay:10.37,2013-06-08 18:53:00,
2013-06-08 13:54:00,80.7,60.3,29.77,SSE,162,3.8,8.1,50,0.00,OVC,,0.00,809.0,WeatherDisplay:10.37,2013-06-08 18:54:00,
2013-06-08 13:56:00,80.9,60.5,29.77,NNE,12,0.9,5.8,50,0.00,OVC,,0.00,947.0,WeatherDisplay:10.37,2013-06-08 18:56:00,
2013-06-08 13:57:00,80.9,60.5,29.77,SSE,165,1.5,5.8,50,0.00,OVC,,0.00,949.0,WeatherDisplay:10.37,2013-06-08 18:57:00,
2013-06-08 13:58:00,81.1,59.6,29.77,SSW,197,5.1,9.2,48,0.00,OVC,,0.00,949.0,WeatherDisplay:10.37,2013-06-08 18:58:00,
2013-06-08 14:00:00,81.1,59.6,29.77,SSE,157,5.7,11.5,48,0.00,OVC,,0.00,930.0,WeatherDisplay:10.37,2013-06-08 19:00:00,
2013-06-08 14:01:00,81.0,59.5,29.77,South,174,6.3,10.4,48,0.00,OVC,,0.00,918.0,WeatherDisplay:10.37,2013-06-08 19:01:00,
2013-06-08 14:02:00,80.9,59.4,29.77,South,186,4.6,10.4,48,0.00,OVC,,0.00,918.0,WeatherDisplay:10.37,2013-06-08 19:02:00,
2013-06-08 14:03:00,80.9,60.5,29.77,South,169,3.9,7.0,50,0.00,OVC,,0.00,882.0,WeatherDisplay:10.37,2013-06-08 19:03:00,
2013-06-08 14:05:00,81.0,60.6,29.77,East,101,5.2,11.5,50,0.00,OVC,,0.00,902.0,WeatherDisplay:10.37,2013-06-08 19:05:00,
2013-06-08 14:06:00,81.0,59.5,29.77,South,176,8.4,13.8,48,0.00,OVC,,0.00,889.0,WeatherDisplay:10.37,2013-06-08 19:06:00,
2013-06-08 14:07:00,81.0,60.0,29.77,South,179,5.5,13.8,49,0.00,OVC,,0.00,879.0,WeatherDisplay:10.37,2013-06-08 19:07:00,
2013-06-08 14:08:00,81.1,59.6,29.77,SSE,150,6.0,9.2,48,0.00,OVC,,0.00,879.0,WeatherDisplay:10.37,2013-06-08 19:08:00,
2013-06-08 14:09:00,81.2,60.8,29.77,East,85,3.8,9.2,50,0.00,OVC,,0.00,868.0,WeatherDisplay:10.37,2013-06-08 19:09:00,
2013-06-08 14:10:00,81.4,61.5,29.77,SE,146,4.7,5.8,51,0.00,OVC,,0.00,902.0,WeatherDisplay:10.37,2013-06-08 19:10:00,
2013-06-08 14:12:00,81.2,60.2,29.76,South,183,5.4,10.4,49,0.00,OVC,,0.00,909.0,WeatherDisplay:10.37,2013-06-08 19:12:00,
2013-06-08 14:13:00,81.2,59.6,29.77,SSE,153,4.4,5.0,48,0.00,OVC,,0.00,909.0,WeatherDisplay:10.37,2013-06-08 19:13:00,
2013-06-08 14:15:00,81.0,58.9,29.76,SSW,211,9.6,15.0,47,0.00,OVC,,0.00,907.0,WeatherDisplay:10.37,2013-06-08 19:15:00,
2013-06-08 14:17:00,80.8,60.4,29.76,SSE,159,5.4,8.1,50,0.00,OVC,,0.00,918.0,WeatherDisplay:10.37,2013-06-08 19:17:00,
2013-06-08 14:18:00,81.1,60.7,29.76,SE,141,4.6,9.2,50,0.00,OVC,,0.00,919.0,WeatherDisplay:10.37,2013-06-08 19:18:00,
2013-06-08 14:20:00,81.1,60.7,29.76,SSW,203,2.9,7.0,50,0.00,OVC,,0.00,898.0,WeatherDisplay:10.37,2013-06-08 19:20:00,
2013-06-08 14:22:00,81.4,62.1,29.76,ESE,105,2.5,6.9,52,0.00,OVC,,0.00,907.0,WeatherDisplay:10.37,2013-06-08 19:22:00,
2013-06-08 14:23:00,81.5,59.9,29.76,SSW,197,5.7,10.0,48,0.00,OVC,,0.00,916.0,WeatherDisplay:10.37,2013-06-08 19:23:00,
2013-06-08 14:25:00,81.5,59.9,29.76,South,171,6.0,11.5,48,0.00,OVC,,0.00,914.0,WeatherDisplay:10.37,2013-06-08 19:25:00,
2013-06-08 14:26:00,81.6,59.4,29.76,SE,146,5.7,11.5,47,0.00,OVC,,0.00,916.0,WeatherDisplay:10.37,2013-06-08 19:26:00,
2013-06-08 14:27:00,81.4,59.2,29.76,SE,145,4.2,6.9,47,0.00,OVC,,0.00,918.0,WeatherDisplay:10.37,2013-06-08 19:27:00,
2013-06-08 14:28:00,81.4,61.0,29.76,SE,137,2.9,5.8,50,0.00,OVC,,0.00,914.0,WeatherDisplay:10.37,2013-06-08 19:28:00,
2013-06-08 14:30:00,81.6,60.0,29.76,SE,138,6.8,11.5,48,0.00,OVC,,0.00,900.0,WeatherDisplay:10.37,2013-06-08 19:30:00,
2013-06-08 14:31:00,81.5,59.3,29.76,SSE,149,3.7,11.5,47,0.00,OVC,,0.00,891.0,WeatherDisplay:10.37,2013-06-08 19:31:00,
2013-06-08 14:33:00,81.8,60.2,29.76,South,186,7.7,11.5,48,0.00,OVC,,0.00,893.0,WeatherDisplay:10.37,2013-06-08 19:33:00,
2013-06-08 14:34:00,81.9,61.4,29.76,South,174,4.6,11.5,50,0.00,OVC,,0.00,877.0,WeatherDisplay:10.37,2013-06-08 19:34:00,
2013-06-08 14:35:00,81.9,60.3,29.76,SSE,153,5.9,9.2,48,0.00,OVC,,0.00,795.0,WeatherDisplay:10.37,2013-06-08 19:35:00,
2013-06-08 14:36:00,81.8,60.8,29.76,East,80,3.9,10.4,49,0.00,OVC,,0.00,882.0,WeatherDisplay:10.37,2013-06-08 19:36:00,
2013-06-08 14:38:00,81.9,60.9,29.76,SSE,165,6.8,11.5,49,0.00,OVC,,0.00,863.0,WeatherDisplay:10.37,2013-06-08 19:38:00,
2013-06-08 14:39:00,81.9,60.3,29.76,SSW,196,4.8,11.5,48,0.00,OVC,,0.00,882.0,WeatherDisplay:10.37,2013-06-08 19:39:00,
2013-06-08 14:40:00,81.9,60.3,29.76,SSE,153,6.2,9.0,48,0.00,OVC,,0.00,872.0,WeatherDisplay:10.37,2013-06-08 19:40:00,
2013-06-08 14:42:00,82.1,61.0,29.76,SSW,209,4.4,11.0,49,0.00,OVC,,0.00,865.0,WeatherDisplay:10.37,2013-06-08 19:42:00,
2013-06-08 14:43:00,82.1,61.0,29.75,SE,144,4.5,12.0,49,0.00,OVC,,0.00,847.0,WeatherDisplay:10.37,2013-06-08 19:43:00,
2013-06-08 14:44:00,82.0,60.4,29.75,SE,136,7.1,11.5,48,0.00,OVC,,0.00,851.0,WeatherDisplay:10.37,2013-06-08 19:44:00,
2013-06-08 14:45:00,81.8,59.6,29.75,South,179,4.9,8.1,47,0.00,OVC,,0.00,861.0,WeatherDisplay:10.37,2013-06-08 19:45:00,
2013-06-08 14:47:00,81.7,60.7,29.76,ENE,78,4.5,4.6,49,0.00,OVC,,0.00,851.0,WeatherDisplay:10.37,2013-06-08 19:47:00,
2013-06-08 14:48:00,81.9,60.9,29.75,East,92,5.9,11.5,49,0.00,OVC,,0.00,858.0,WeatherDisplay:10.37,2013-06-08 19:48:00,
2013-06-08 14:49:00,82.0,61.5,29.75,SW,223,4.2,11.5,50,0.00,OVC,,0.00,863.0,WeatherDisplay:10.37,2013-06-08 19:49:00,
2013-06-08 14:50:00,82.0,59.8,29.75,South,188,4.5,6.9,47,0.00,OVC,,0.00,865.0,WeatherDisplay:10.37,2013-06-08 19:50:00,
2013-06-08 14:53:00,81.7,59.5,29.75,SSW,204,9.0,14.0,47,0.00,OVC,,0.00,877.0,WeatherDisplay:10.37,2013-06-08 19:53:00,
2013-06-08 14:54:00,81.5,59.3,29.75,SSE,161,8.4,15.0,47,0.00,OVC,,0.00,879.0,WeatherDisplay:10.37,2013-06-08 19:54:00,
2013-06-08 14:55:00,81.3,59.7,29.75,SSE,161,5.1,15.0,48,0.00,OVC,,0.00,858.0,WeatherDisplay:10.37,2013-06-08 19:55:00,
2013-06-08 14:58:00,81.9,60.3,29.75,SSE,167,7.0,13.8,48,0.00,OVC,,0.00,853.0,WeatherDisplay:10.37,2013-06-08 19:58:00,
2013-06-08 14:59:00,82.0,59.8,29.75,South,171,7.2,10.4,47,0.00,OVC,,0.00,853.0,WeatherDisplay:10.37,2013-06-08 19:59:00,
2013-06-08 15:00:00,82.1,61.0,29.75,SE,135,5.3,9.2,49,0.00,OVC,,0.00,847.0,WeatherDisplay:10.37,2013-06-08 20:00:00,
2013-06-08 15:03:00,82.0,59.2,29.75,South,191,7.0,13.8,46,0.00,OVC,,0.00,847.0,WeatherDisplay:10.37,2013-06-08 20:03:00,
2013-06-08 15:04:00,81.9,59.7,29.75,South,179,6.8,13.8,47,0.00,OVC,,0.00,847.0,WeatherDisplay:10.37,2013-06-08 20:04:00,
2013-06-08 15:06:00,81.6,60.0,29.75,SSW,200,5.2,10.4,48,0.00,OVC,,0.00,849.0,WeatherDisplay:10.37,2013-06-08 20:06:00,
2013-06-08 15:07:00,81.5,59.9,29.75,ESE,123,6.1,11.5,48,0.00,OVC,,0.00,846.0,WeatherDisplay:10.37,2013-06-08 20:07:00,
2013-06-08 15:09:00,81.4,59.2,29.74,South,178,8.4,17.3,47,0.00,OVC,,0.00,842.0,WeatherDisplay:10.37,2013-06-08 20:09:00,
2013-06-08 15:11:00,81.4,60.4,29.75,SSE,156,4.7,9.2,49,0.00,OVC,,0.00,838.0,WeatherDisplay:10.37,2013-06-08 20:11:00,
2013-06-08 15:12:00,81.6,61.2,29.75,SW,225,6.0,11.5,50,0.00,OVC,,0.00,837.0,WeatherDisplay:10.37,2013-06-08 20:12:00,
2013-06-08 15:14:00,82.0,59.8,29.75,SSE,155,5.4,11.5,47,0.00,OVC,,0.00,833.0,WeatherDisplay:10.37,2013-06-08 20:14:00,
2013-06-08 15:16:00,82.0,61.0,29.74,SSW,208,5.7,6.9,49,0.00,OVC,,0.00,830.0,WeatherDisplay:10.37,2013-06-08 20:16:00,
2013-06-08 15:17:00,81.8,59.6,29.74,ESE,107,4.8,6.9,47,0.00,OVC,,0.00,828.0,WeatherDisplay:10.37,2013-06-08 20:17:00,
2013-06-08 15:19:00,82.2,62.3,29.74,NE,38,2.3,4.6,51,0.00,OVC,,0.00,826.0,WeatherDisplay:10.37,2013-06-08 20:19:00,
2013-06-08 15:21:00,82.6,60.3,29.74,SE,130,3.9,8.1,47,0.00,OVC,,0.00,821.0,WeatherDisplay:10.37,2013-06-08 20:21:00,
2013-06-08 15:22:00,82.4,60.1,29.74,SE,146,2.7,5.8,47,0.00,OVC,,0.00,826.0,WeatherDisplay:10.37,2013-06-08 20:22:00,
2013-06-08 15:24:00,82.5,60.8,29.74,SSE,149,4.5,11.0,48,0.00,OVC,,0.00,823.0,WeatherDisplay:10.37,2013-06-08 20:24:00,
2013-06-08 15:25:00,82.5,60.8,29.74,SSE,164,7.0,13.8,48,0.00,OVC,,0.00,823.0,WeatherDisplay:10.37,2013-06-08 20:25:00,
2013-06-08 15:26:00,82.6,59.7,29.74,SSE,161,5.7,13.8,46,0.00,OVC,,0.00,821.0,WeatherDisplay:10.37,2013-06-08 20:26:00,
2013-06-08 15:27:00,82.4,59.5,29.74,WSW,249,5.6,10.4,46,0.00,OVC,,0.00,819.0,WeatherDisplay:10.37,2013-06-08 20:27:00,
2013-06-08 15:29:00,82.2,60.0,29.74,SE,126,9.3,10.0,47,0.00,OVC,,0.00,810.0,WeatherDisplay:10.37,2013-06-08 20:29:00,
2013-06-08 15:30:00,82.0,59.8,29.74,South,186,6.3,16.1,47,0.00,OVC,,0.00,809.0,WeatherDisplay:10.37,2013-06-08 20:30:00,
2013-06-08 15:31:00,81.8,59.6,29.74,ESE,118,6.1,12.7,47,0.00,OVC,,0.00,809.0,WeatherDisplay:10.37,2013-06-08 20:31:00,
2013-06-08 15:32:00,81.7,59.5,29.74,SW,217,7.2,13.8,47,0.00,OVC,,0.00,803.0,WeatherDisplay:10.37,2013-06-08 20:32:00,
2013-06-08 15:34:00,81.8,61.3,29.74,SE,136,3.3,11.5,50,0.00,OVC,,0.00,805.0,WeatherDisplay:10.37,2013-06-08 20:34:00,
2013-06-08 15:35:00,82.0,61.0,29.74,South,189,5.3,10.4,49,0.00,OVC,,0.00,802.0,WeatherDisplay:10.37,2013-06-08 20:35:00,
2013-06-08 15:37:00,82.1,59.9,29.74,South,175,5.0,10.4,47,0.00,OVC,,0.00,800.0,WeatherDisplay:10.37,2013-06-08 20:37:00,
2013-06-08 15:38:00,82.2,60.0,29.74,SSW,198,9.6,19.6,47,0.00,OVC,,0.00,793.0,WeatherDisplay:10.37,2013-06-08 20:38:00,
2013-06-08 15:39:00,82.1,60.5,29.74,ESE,116,5.7,19.6,48,0.00,OVC,,0.00,795.0,WeatherDisplay:10.37,2013-06-08 20:39:00,
2013-06-08 15:40:00,82.0,60.4,29.74,WSW,245,5.6,10.4,48,0.00,OVC,,0.00,796.0,WeatherDisplay:10.37,2013-06-08 20:40:00,
2013-06-08 15:41:00,81.9,60.3,29.74,South,171,5.5,10.4,48,0.00,OVC,,0.00,795.0,WeatherDisplay:10.37,2013-06-08 20:41:00,
2013-06-08 15:42:00,81.9,60.3,29.74,SSE,163,4.6,9.2,48,0.00,OVC,,0.00,795.0,WeatherDisplay:10.37,2013-06-08 20:42:00,
2013-06-08 15:44:00,82.1,61.6,29.74,SSE,166,4.4,9.0,50,0.00,OVC,,0.00,784.0,WeatherDisplay:10.37,2013-06-08 20:44:00,
2013-06-08 15:45:00,82.1,59.9,29.74,South,169,9.3,15.0,47,0.00,OVC,,0.00,780.0,WeatherDisplay:10.37,2013-06-08 20:45:00,
2013-06-08 15:47:00,81.9,59.7,29.74,SE,136,6.0,16.1,47,0.00,OVC,,0.00,779.0,WeatherDisplay:10.37,2013-06-08 20:47:00,
2013-06-08 15:49:00,82.0,61.0,29.74,SSE,167,4.0,6.9,49,0.00,OVC,,0.00,772.0,WeatherDisplay:10.37,2013-06-08 20:49:00,
2013-06-08 15:50:00,82.0,59.8,29.74,SSW,199,7.6,8.0,47,0.00,OVC,,0.00,761.0,WeatherDisplay:10.37,2013-06-08 20:50:00,
2013-06-08 15:51:00,81.9,59.7,29.74,SSE,161,9.4,17.3,47,0.00,OVC,,0.00,768.0,WeatherDisplay:10.37,2013-06-08 20:51:00,
2013-06-08 15:52:00,81.9,60.3,29.74,SSE,161,6.9,12.7,48,0.00,OVC,,0.00,766.0,WeatherDisplay:10.37,2013-06-08 20:52:00,
2013-06-08 15:54:00,81.7,60.1,29.74,SE,137,4.0,9.2,48,0.00,OVC,,0.00,765.0,WeatherDisplay:10.37,2013-06-08 20:54:00,
2013-06-08 15:55:00,81.9,60.3,29.74,SSE,154,7.3,10.4,48,0.00,OVC,,0.00,758.0,WeatherDisplay:10.37,2013-06-08 20:55:00,
2013-06-08 15:56:00,81.9,60.3,29.74,SSW,207,6.8,10.4,48,0.00,OVC,,0.00,754.0,WeatherDisplay:10.37,2013-06-08 20:56:00,
2013-06-08 15:57:00,82.0,60.4,29.74,SSE,150,3.9,9.2,48,0.00,OVC,,0.00,752.0,WeatherDisplay:10.37,2013-06-08 20:57:00,
2013-06-08 15:59:00,82.0,61.0,29.73,ENE,73,2.2,10.4,49,0.00,OVC,,0.00,752.0,WeatherDisplay:10.37,2013-06-08 20:59:00,
2013-06-08 16:00:00,82.0,60.4,29.73,SSW,198,5.7,9.2,48,0.00,OVC,,0.00,747.0,WeatherDisplay:10.37,2013-06-08 21:00:00,
2013-06-08 16:02:00,82.0,60.4,29.73,SSW,207,7.4,12.7,48,0.00,OVC,,0.00,765.0,WeatherDisplay:10.37,2013-06-08 21:02:00,
2013-06-08 16:04:00,82.0,61.0,29.73,South,174,8.1,17.3,49,0.00,OVC,,0.00,747.0,WeatherDisplay:10.37,2013-06-08 21:04:00,
2013-06-08 16:05:00,82.0,61.0,29.73,SW,227,4.9,11.5,49,0.00,OVC,,0.00,768.0,WeatherDisplay:10.37,2013-06-08 21:05:00,
2013-06-08 16:07:00,81.9,60.9,29.74,South,178,2.5,5.0,49,0.00,OVC,,0.00,751.0,WeatherDisplay:10.37,2013-06-08 21:07:00,
2013-06-08 16:10:00,82.4,60.7,29.73,South,184,4.6,8.1,48,0.00,OVC,,0.00,729.0,WeatherDisplay:10.37,2013-06-08 21:10:00,
2013-06-08 16:12:00,82.3,61.2,29.73,SSE,161,5.5,6.9,49,0.00,OVC,,0.00,731.0,WeatherDisplay:10.37,2013-06-08 21:12:00,
2013-06-08 16:15:00,82.1,60.5,29.73,SSE,164,5.9,8.1,48,0.00,OVC,,0.00,726.0,WeatherDisplay:10.37,2013-06-08 21:15:00,
2013-06-08 16:16:00,82.1,59.9,29.73,South,180,5.9,10.4,47,0.00,OVC,,0.00,726.0,WeatherDisplay:10.37,2013-06-08 21:16:00,
2013-06-08 16:17:00,82.1,60.5,29.73,SSE,161,5.2,6.9,48,0.00,OVC,,0.00,717.0,WeatherDisplay:10.37,2013-06-08 21:17:00,
2013-06-08 16:18:00,82.1,60.5,29.73,East,94,7.0,11.5,48,0.00,OVC,,0.00,717.0,WeatherDisplay:10.37,2013-06-08 21:18:00,
2013-06-08 16:21:00,82.3,60.6,29.73,South,186,6.1,11.5,48,0.00,OVC,,0.00,710.0,WeatherDisplay:10.37,2013-06-08 21:21:00,
2013-06-08 16:22:00,82.5,60.8,29.73,South,190,6.6,10.4,48,0.00,OVC,,0.00,701.0,WeatherDisplay:10.37,2013-06-08 21:22:00,
2013-06-08 16:23:00,82.4,60.7,29.73,ESE,103,5.0,11.5,48,0.00,OVC,,0.00,701.0,WeatherDisplay:10.37,2013-06-08 21:23:00,
2013-06-08 16:26:00,82.5,61.4,29.73,ESE,117,3.6,8.1,49,0.00,OVC,,0.00,698.0,WeatherDisplay:10.37,2013-06-08 21:26:00,
2013-06-08 16:27:00,82.5,60.8,29.73,SSE,160,3.0,10.4,48,0.00,OVC,,0.00,694.0,WeatherDisplay:10.37,2013-06-08 21:27:00,
2013-06-08 16:29:00,82.6,60.9,29.73,South,175,8.1,11.5,48,0.00,OVC,,0.00,686.0,WeatherDisplay:10.37,2013-06-08 21:29:00,
2013-06-08 16:31:00,82.3,60.1,29.73,SSE,167,9.4,25.3,47,0.00,OVC,,0.00,680.0,WeatherDisplay:10.37,2013-06-08 21:31:00,
2013-06-08 16:32:00,82.2,60.0,29.73,SE,145,12.1,25.3,47,0.00,OVC,,0.00,680.0,WeatherDisplay:10.37,2013-06-08 21:32:00,
2013-06-08 16:33:00,82.0,60.4,29.73,SSE,154,8.1,25.3,48,0.00,OVC,,0.00,679.0,WeatherDisplay:10.37,2013-06-08 21:33:00,
2013-06-08 16:34:00,81.9,60.9,29.73,West,265,5.7,13.8,49,0.00,OVC,,0.00,664.0,WeatherDisplay:10.37,2013-06-08 21:34:00,
2013-06-08 16:36:00,82.0,59.8,29.73,SW,235,8.5,15.0,47,0.00,OVC,,0.00,668.0,WeatherDisplay:10.37,2013-06-08 21:36:00,
2013-06-08 16:37:00,81.9,60.3,29.73,SE,132,8.9,15.0,48,0.00,OVC,,0.00,666.0,WeatherDisplay:10.37,2013-06-08 21:37:00,
2013-06-08 16:38:00,81.9,60.3,29.72,SSW,212,3.6,18.4,48,0.00,OVC,,0.00,659.0,WeatherDisplay:10.37,2013-06-08 21:38:00,
2013-06-08 16:40:00,81.9,60.3,29.73,South,189,5.7,11.5,48,0.00,OVC,,0.00,663.0,WeatherDisplay:10.37,2013-06-08 21:40:00,
2013-06-08 16:41:00,81.9,60.3,29.73,SE,129,6.9,11.5,48,0.00,OVC,,0.00,654.0,WeatherDisplay:10.37,2013-06-08 21:41:00,
2013-06-08 16:42:00,81.9,60.3,29.73,SSE,162,4.6,11.5,48,0.00,OVC,,0.00,652.0,WeatherDisplay:10.37,2013-06-08 21:42:00,
2013-06-08 16:43:00,81.9,60.9,29.73,SW,218,4.2,6.9,49,0.00,OVC,,0.00,650.0,WeatherDisplay:10.37,2013-06-08 21:43:00,
2013-06-08 16:45:00,81.8,59.6,29.72,South,184,10.8,17.3,47,0.00,OVC,,0.00,645.0,WeatherDisplay:10.37,2013-06-08 21:45:00,
2013-06-08 16:47:00,81.7,60.7,29.72,ESE,111,4.3,12.7,49,0.00,OVC,,0.00,635.0,WeatherDisplay:10.37,2013-06-08 21:47:00,
2013-06-08 16:48:00,81.8,60.8,29.72,SE,134,2.5,5.0,49,0.00,OVC,,0.00,635.0,WeatherDisplay:10.37,2013-06-08 21:48:00,
2013-06-08 16:49:00,82.0,61.0,29.73,WSW,246,5.9,10.4,49,0.00,OVC,,0.00,629.0,WeatherDisplay:10.37,2013-06-08 21:49:00,
2013-06-08 16:50:00,82.1,61.0,29.72,SE,132,5.1,10.4,49,0.00,OVC,,0.00,638.0,WeatherDisplay:10.37,2013-06-08 21:50:00,
2013-06-08 16:52:00,82.0,60.4,29.72,ESE,122,4.1,13.8,48,0.00,OVC,,0.00,628.0,WeatherDisplay:10.37,2013-06-08 21:52:00,
2013-06-08 16:53:00,81.9,60.3,29.73,SSE,163,7.7,10.4,48,0.00,OVC,,0.00,628.0,WeatherDisplay:10.37,2013-06-08 21:53:00,
2013-06-08 16:54:00,81.9,60.9,29.72,SW,233,5.5,12.7,49,0.00,OVC,,0.00,622.0,WeatherDisplay:10.37,2013-06-08 21:54:00,
2013-06-08 16:55:00,81.9,60.9,29.72,SSE,163,6.3,11.5,49,0.00,CLR,,0.00,621.0,WeatherDisplay:10.37,2013-06-08 21:55:00,
2013-06-08 16:57:00,81.9,60.9,29.72,SSE,158,4.6,11.5,49,0.00,CLR,,0.00,613.0,WeatherDisplay:10.37,2013-06-08 21:57:00,
2013-06-08 16:58:00,81.8,60.8,29.72,SSE,152,2.2,8.1,49,0.00,CLR,,0.00,613.0,WeatherDisplay:10.37,2013-06-08 21:58:00,
2013-06-08 17:00:00,82.0,61.5,29.72,SSE,159,6.4,15.0,50,0.00,CLR,,0.00,617.0,WeatherDisplay:10.37,2013-06-08 22:00:00,
2013-06-08 17:02:00,82.1,61.0,29.73,South,176,6.6,16.1,49,0.00,CLR,,0.00,591.0,WeatherDisplay:10.37,2013-06-08 22:02:00,
2013-06-08 17:03:00,82.0,60.4,29.72,SSE,166,6.6,13.8,48,0.00,CLR,,0.00,587.0,WeatherDisplay:10.37,2013-06-08 22:03:00,
2013-06-08 17:04:00,82.0,61.0,29.72,ESE,112,7.4,13.8,49,0.00,CLR,,0.00,587.0,WeatherDisplay:10.37,2013-06-08 22:04:00,
2013-06-08 17:05:00,81.9,60.3,29.72,South,177,5.8,9.2,48,0.00,CLR,,0.00,568.0,WeatherDisplay:10.37,2013-06-08 22:05:00,
2013-06-08 17:06:00,81.9,60.9,29.72,SSE,153,3.8,10.0,49,0.00,CLR,,0.00,494.0,WeatherDisplay:10.37,2013-06-08 22:06:00,
2013-06-08 17:07:00,81.9,60.3,29.72,SSE,165,5.4,11.5,48,0.00,CLR,,0.00,494.0,WeatherDisplay:10.37,2013-06-08 22:07:00,
2013-06-08 17:08:00,81.8,60.2,29.72,SSE,148,5.5,9.2,48,0.00,CLR,,0.00,436.0,WeatherDisplay:10.37,2013-06-08 22:08:00,
2013-06-08 17:09:00,81.8,60.8,29.72,SW,225,4.5,9.2,49,0.00,CLR,,0.00,436.0,WeatherDisplay:10.37,2013-06-08 22:09:00,
2013-06-08 17:10:00,81.7,60.7,29.72,SSE,153,9.8,16.0,49,0.00,CLR,,0.00,183.0,WeatherDisplay:10.37,2013-06-08 22:10:00,
2013-06-08 17:12:00,81.5,61.1,29.72,South,186,4.8,18.4,50,0.00,CLR,,0.00,601.0,WeatherDisplay:10.37,2013-06-08 22:12:00,
2013-06-08 17:13:00,81.5,60.5,29.72,South,170,9.4,16.0,49,0.00,CLR,,0.00,592.0,WeatherDisplay:10.37,2013-06-08 22:13:00,
2013-06-08 17:14:00,81.4,60.4,29.72,SSE,164,10.0,18.0,49,0.00,CLR,,0.00,592.0,WeatherDisplay:10.37,2013-06-08 22:14:00,
2013-06-08 17:16:00,81.3,60.9,29.72,SSE,163,6.3,11.5,50,0.00,CLR,,0.00,580.0,WeatherDisplay:10.37,2013-06-08 22:16:00,
2013-06-08 17:17:00,81.3,60.9,29.72,South,175,7.4,10.4,50,0.00,CLR,,0.00,578.0,WeatherDisplay:10.37,2013-06-08 22:17:00,
2013-06-08 17:18:00,81.2,60.8,29.72,SSE,165,3.9,10.4,50,0.00,CLR,,0.00,568.0,WeatherDisplay:10.37,2013-06-08 22:18:00,
2013-06-08 17:19:00,81.3,60.9,29.72,SSE,155,3.3,10.4,50,0.00,CLR,,0.00,568.0,WeatherDisplay:10.37,2013-06-08 22:19:00,
2013-06-08 17:22:00,81.6,61.2,29.72,WSW,258,3.6,6.9,50,0.00,CLR,,0.00,563.0,WeatherDisplay:10.37,2013-06-08 22:22:00,
2013-06-08 17:23:00,81.7,61.2,29.72,South,171,3.8,8.1,50,0.00,CLR,,0.00,580.0,WeatherDisplay:10.37,2013-06-08 22:23:00,
2013-06-08 17:24:00,81.7,61.2,29.72,SSE,164,3.0,8.1,50,0.00,CLR,,0.00,580.0,WeatherDisplay:10.37,2013-06-08 22:24:00,
2013-06-08 17:25:00,81.9,62.0,29.72,SE,130,3.8,8.1,51,0.00,CLR,,0.00,577.0,WeatherDisplay:10.37,2013-06-08 22:25:00,
2013-06-08 17:27:00,81.9,60.9,29.72,SSE,162,4.3,9.2,49,0.00,CLR,,0.00,559.0,WeatherDisplay:10.37,2013-06-08 22:27:00,
2013-06-08 17:28:00,81.9,60.9,29.72,South,175,7.4,13.8,49,0.00,CLR,,0.00,559.0,WeatherDisplay:10.37,2013-06-08 22:28:00,
2013-06-08 17:29:00,81.8,60.8,29.72,South,187,5.7,13.8,49,0.00,CLR,,0.00,559.0,WeatherDisplay:10.37,2013-06-08 22:29:00,
2013-06-08 17:30:00,81.8,60.8,29.72,SSE,164,5.2,11.5,49,0.00,CLR,,0.00,559.0,WeatherDisplay:10.37,2013-06-08 22:30:00,
2013-06-08 17:32:00,81.6,60.6,29.72,South,182,8.3,8.3,49,0.00,CLR,,0.00,478.0,WeatherDisplay:10.37,2013-06-08 22:32:00,
2013-06-08 17:33:00,81.6,60.6,29.72,South,182,6.7,12.7,49,0.00,CLR,,0.00,478.0,WeatherDisplay:10.37,2013-06-08 22:33:00,
2013-06-08 17:34:00,81.5,60.5,29.72,SSW,202,3.5,6.9,49,0.00,CLR,,0.00,478.0,WeatherDisplay:10.37,2013-06-08 22:34:00,
2013-06-08 17:35:00,81.4,61.0,29.72,SSE,153,2.8,6.9,50,0.00,CLR,,0.00,160.0,WeatherDisplay:10.37,2013-06-08 22:35:00,
2013-06-08 17:37:00,81.2,60.8,29.72,SE,130,4.1,9.2,50,0.00,CLR,,0.00,262.0,WeatherDisplay:10.37,2013-06-08 22:37:00,
2013-06-08 17:38:00,81.1,60.7,29.72,SE,143,5.5,9.2,50,0.00,CLR,,0.00,218.0,WeatherDisplay:10.37,2013-06-08 22:38:00,
2013-06-08 17:39:00,80.9,60.5,29.72,South,178,4.7,9.2,50,0.00,CLR,,0.00,176.0,WeatherDisplay:10.37,2013-06-08 22:39:00,
2013-06-08 17:40:00,80.7,60.9,29.72,South,171,5.8,10.4,51,0.00,CLR,,0.00,149.0,WeatherDisplay:10.37,2013-06-08 22:40:00,
2013-06-08 17:42:00,80.3,60.5,29.71,SSE,161,6.0,11.5,51,0.00,CLR,,0.00,148.0,WeatherDisplay:10.37,2013-06-08 22:42:00,
2013-06-08 17:43:00,80.2,60.4,29.72,SSW,198,4.1,5.8,51,0.00,CLR,,0.00,148.0,WeatherDisplay:10.37,2013-06-08 22:43:00,
2013-06-08 17:44:00,80.2,61.0,29.72,SSE,164,5.0,14.0,52,0.00,CLR,,0.00,330.0,WeatherDisplay:10.37,2013-06-08 22:44:00,
2013-06-08 17:45:00,80.1,60.3,29.71,SSE,159,6.3,11.5,51,0.00,CLR,,0.00,330.0,WeatherDisplay:10.37,2013-06-08 22:45:00,
2013-06-08 17:47:00,80.0,60.8,29.71,SW,227,4.5,9.2,52,0.00,CLR,,0.00,362.0,WeatherDisplay:10.37,2013-06-08 22:47:00,
2013-06-08 17:48:00,80.0,60.8,29.71,SSE,148,5.2,8.1,52,0.00,CLR,,0.00,362.0,WeatherDisplay:10.37,2013-06-08 22:48:00,
2013-06-08 17:49:00,80.0,60.8,29.71,South,182,4.3,8.1,52,0.00,CLR,,0.00,515.0,WeatherDisplay:10.37,2013-06-08 22:49:00,
2013-06-08 17:50:00,80.1,60.9,29.71,SSW,211,4.7,9.2,52,0.00,CLR,,0.00,515.0,WeatherDisplay:10.37,2013-06-08 22:50:00,
2013-06-08 17:51:00,80.2,60.4,29.71,SSE,155,5.4,9.2,51,0.00,CLR,,0.00,519.0,WeatherDisplay:10.37,2013-06-08 22:51:00,
2013-06-08 17:52:00,80.5,61.3,29.71,SE,135,4.6,9.2,52,0.00,CLR,,0.00,485.0,WeatherDisplay:10.37,2013-06-08 22:52:00,
2013-06-08 17:53:00,80.6,60.8,29.71,South,188,6.0,11.5,51,0.00,CLR,,0.00,272.0,WeatherDisplay:10.37,2013-06-08 22:53:00,
2013-06-08 17:54:00,80.6,60.8,29.71,South,172,6.4,12.0,51,0.00,CLR,,0.00,288.0,WeatherDisplay:10.37,2013-06-08 22:54:00,
2013-06-08 17:55:00,80.5,61.3,29.71,SSE,158,6.2,11.5,52,0.00,CLR,,0.00,288.0,WeatherDisplay:10.37,2013-06-08 22:55:00,
2013-06-08 17:56:00,80.5,61.3,29.71,SSE,162,4.8,9.2,52,0.00,CLR,,0.00,341.0,WeatherDisplay:10.37,2013-06-08 22:56:00,
2013-06-08 17:58:00,80.3,61.1,29.71,SE,135,2.8,9.2,52,0.00,CLR,,0.00,475.0,WeatherDisplay:10.37,2013-06-08 22:58:00,
2013-06-08 17:59:00,80.3,61.1,29.71,SSW,206,7.6,15.0,52,0.00,CLR,,0.00,473.0,WeatherDisplay:10.37,2013-06-08 22:59:00,
2013-06-08 18:00:00,80.3,60.5,29.70,South,171,6.1,11.5,51,0.00,CLR,,0.00,461.0,WeatherDisplay:10.37,2013-06-08 23:00:00,
2013-06-08 18:01:00,80.3,61.1,29.70,South,184,4.8,11.5,52,0.00,CLR,,0.00,461.0,WeatherDisplay:10.37,2013-06-08 23:01:00,
2013-06-08 18:03:00,80.4,61.2,29.70,SSE,159,5.3,9.0,52,0.00,CLR,,0.00,424.0,WeatherDisplay:10.37,2013-06-08 23:03:00,
2013-06-08 18:04:00,80.5,61.3,29.70,South,190,7.1,15.0,52,0.00,CLR,,0.00,422.0,WeatherDisplay:10.37,2013-06-08 23:04:00,
2013-06-08 18:05:00,80.4,61.2,29.70,SSE,156,5.9,11.5,52,0.00,CLR,,0.00,411.0,WeatherDisplay:10.37,2013-06-08 23:05:00,
2013-06-08 18:06:00,80.4,61.2,29.70,ESE,119,6.2,11.5,52,0.00,CLR,,0.00,411.0,WeatherDisplay:10.37,2013-06-08 23:06:00,
2013-06-08 18:08:00,80.3,61.6,29.69,South,185,7.0,20.7,53,0.00,CLR,,0.00,411.0,WeatherDisplay:10.37,2013-06-08 23:08:00,
2013-06-08 18:09:00,80.3,61.1,29.70,WSW,258,6.7,11.5,52,0.00,CLR,,0.00,401.0,WeatherDisplay:10.37,2013-06-08 23:09:00,
2013-06-08 18:11:00,80.2,61.0,29.69,South,184,9.1,13.8,52,0.00,CLR,,0.00,401.0,WeatherDisplay:10.37,2013-06-08 23:11:00,
2013-06-08 18:12:00,80.3,60.5,29.69,SE,146,6.3,13.8,51,0.00,CLR,,0.00,397.0,WeatherDisplay:10.37,2013-06-08 23:12:00,
2013-06-08 18:13:00,80.3,61.1,29.69,South,187,5.5,9.2,52,0.00,CLR,,0.00,394.0,WeatherDisplay:10.37,2013-06-08 23:13:00,
2013-06-08 18:15:00,80.3,61.1,29.69,SE,133,6.1,12.7,52,0.00,CLR,,0.00,392.0,WeatherDisplay:10.37,2013-06-08 23:15:00,
2013-06-08 18:17:00,80.3,61.6,29.69,SSE,165,5.5,7.0,53,0.00,CLR,,0.00,390.0,WeatherDisplay:10.37,2013-06-08 23:17:00,
2013-06-08 18:18:00,80.4,60.6,29.69,SSW,205,6.4,11.5,51,0.00,CLR,,0.00,387.0,WeatherDisplay:10.37,2013-06-08 23:18:00,
2013-06-08 18:20:00,80.4,61.2,29.68,SSE,157,3.8,5.8,52,0.00,CLR,,0.00,394.0,WeatherDisplay:10.37,2013-06-08 23:20:00,
2013-06-08 18:22:00,80.5,61.8,29.68,SSW,194,4.9,8.0,53,0.00,CLR,,0.00,390.0,WeatherDisplay:10.37,2013-06-08 23:22:00,
2013-06-08 18:23:00,80.5,61.8,29.68,South,173,5.2,15.0,53,0.00,CLR,,0.00,388.0,WeatherDisplay:10.37,2013-06-08 23:23:00,
2013-06-08 18:25:00,80.5,61.3,29.68,South,175,5.6,15.0,52,0.00,CLR,,0.00,378.0,WeatherDisplay:10.37,2013-06-08 23:25:00,
2013-06-08 18:27:00,80.4,61.2,29.68,South,190,6.2,11.5,52,0.00,CLR,,0.00,350.0,WeatherDisplay:10.37,2013-06-08 23:27:00,
2013-06-08 18:28:00,80.5,61.8,29.68,SSE,158,4.3,10.4,53,0.00,CLR,,0.00,338.0,WeatherDisplay:10.37,2013-06-08 23:28:00,
2013-06-08 18:30:00,80.4,61.2,29.68,South,173,7.7,10.4,52,0.00,CLR,,0.00,338.0,WeatherDisplay:10.37,2013-06-08 23:30:00,
2013-06-08 18:31:00,80.3,61.1,29.68,South,182,9.2,17.0,52,0.00,CLR,,0.00,339.0,WeatherDisplay:10.37,2013-06-08 23:31:00,
2013-06-08 18:32:00,80.2,61.0,29.68,South,187,7.1,17.3,52,0.00,CLR,,0.00,339.0,WeatherDisplay:10.37,2013-06-08 23:32:00,
2013-06-08 18:34:00,80.1,61.4,29.69,East,97,3.4,6.9,53,0.00,CLR,,0.00,336.0,WeatherDisplay:10.37,2013-06-08 23:34:00,
2013-06-08 18:35:00,80.2,62.0,29.69,SE,124,1.5,3.5,54,0.00,CLR,,0.00,329.0,WeatherDisplay:10.37,2013-06-08 23:35:00,
2013-06-08 18:37:00,80.1,61.4,29.69,SSW,194,4.9,11.5,53,0.00,CLR,,0.00,323.0,WeatherDisplay:10.37,2013-06-08 23:37:00,
2013-06-08 18:38:00,80.1,62.0,29.69,SW,216,3.9,8.1,54,0.00,CLR,,0.00,323.0,WeatherDisplay:10.37,2013-06-08 23:38:00,
2013-06-08 18:39:00,80.0,61.3,29.69,SSE,161,6.3,11.0,53,0.00,CLR,,0.00,323.0,WeatherDisplay:10.37,2013-06-08 23:39:00,
2013-06-08 18:40:00,79.8,60.6,29.69,WSW,237,7.5,13.8,52,0.00,CLR,,0.00,69.0,WeatherDisplay:10.37,2013-06-08 23:40:00,
2013-06-08 18:42:00,79.5,60.9,29.69,SW,216,9.6,13.8,53,0.00,BKN,,0.00,58.0,WeatherDisplay:10.37,2013-06-08 23:42:00,
2013-06-08 18:43:00,79.3,60.7,29.69,SSE,148,6.0,11.5,53,0.00,SCT,,0.00,176.0,WeatherDisplay:10.37,2013-06-08 23:43:00,
2013-06-08 18:44:00,79.3,61.2,29.69,South,175,6.1,11.5,54,0.00,SCT,,0.00,176.0,WeatherDisplay:10.37,2013-06-08 23:44:00,
2013-06-08 18:45:00,79.1,61.0,29.69,SSE,156,9.0,15.0,54,0.00,CLR,,0.00,287.0,WeatherDisplay:10.37,2013-06-08 23:45:00,
2013-06-08 18:47:00,79.1,61.0,29.69,SSE,165,3.0,10.0,54,0.00,CLR,,0.00,287.0,WeatherDisplay:10.37,2013-06-08 23:47:00,
2013-06-08 18:48:00,79.1,61.0,29.69,East,91,3.8,11.5,54,0.00,CLR,,0.00,299.0,WeatherDisplay:10.37,2013-06-08 23:48:00,
2013-06-08 18:49:00,79.1,62.1,29.69,South,173,4.1,12.0,56,0.00,CLR,,0.00,292.0,WeatherDisplay:10.37,2013-06-08 23:49:00,
2013-06-08 18:50:00,79.2,61.1,29.69,SE,128,6.5,10.4,54,0.00,CLR,,0.00,279.0,WeatherDisplay:10.37,2013-06-08 23:50:00,
2013-06-08 18:52:00,79.3,61.7,29.69,South,177,3.2,6.9,55,0.00,CLR,,0.00,264.0,WeatherDisplay:10.37,2013-06-08 23:52:00,
2013-06-08 18:53:00,79.3,61.7,29.69,SSE,155,2.7,6.9,55,0.00,CLR,,0.00,264.0,WeatherDisplay:10.37,2013-06-08 23:53:00,
2013-06-08 18:54:00,79.4,61.3,29.69,SSE,167,5.3,9.2,54,0.00,CLR,,0.00,255.0,WeatherDisplay:10.37,2013-06-08 23:54:00,
2013-06-08 18:57:00,79.4,61.8,29.70,SSW,197,4.3,6.9,55,0.00,SCT,,0.00,213.0,WeatherDisplay:10.37,2013-06-08 23:57:00,
2013-06-08 18:58:00,79.3,61.7,29.69,South,184,3.8,8.1,55,0.00,SCT,,0.00,216.0,WeatherDisplay:10.37,2013-06-08 23:58:00,
2013-06-08 18:59:00,79.3,61.7,29.70,South,172,4.5,7.0,55,0.00,SCT,,0.00,248.0,WeatherDisplay:10.37,2013-06-08 23:59:00,
2013-06-08 19:02:00,79.2,62.1,29.70,SSW,196,6.7,16.1,56,0.00,BKN,,0.00,81.0,WeatherDisplay:10.37,2013-06-09 00:02:00,
2013-06-08 19:03:00,79.1,62.1,29.70,South,176,7.3,16.1,56,0.00,BKN,,0.00,151.0,WeatherDisplay:10.37,2013-06-09 00:03:00,
2013-06-08 19:04:00,79.0,62.0,29.70,SE,131,7.0,11.5,56,0.00,BKN,,0.00,206.0,WeatherDisplay:10.37,2013-06-09 00:04:00,
2013-06-08 19:05:00,79.0,62.0,29.70,SE,144,7.2,11.5,56,0.00,SCT,,0.00,195.0,WeatherDisplay:10.37,2013-06-09 00:05:00,
2013-06-08 19:07:00,79.0,62.0,29.70,SE,144,6.6,11.5,56,0.00,BKN,,0.00,171.0,WeatherDisplay:10.37,2013-06-09 00:07:00,
2013-06-08 19:08:00,79.1,62.1,29.70,South,170,7.0,11.5,56,0.00,BKN,,0.00,190.0,WeatherDisplay:10.37,2013-06-09 00:08:00,
2013-06-08 19:09:00,79.0,62.0,29.70,SSE,163,5.0,13.0,56,0.00,BKN,,0.00,98.0,WeatherDisplay:10.37,2013-06-09 00:09:00,
2013-06-08 19:10:00,79.0,62.0,29.70,SSE,164,2.2,5.8,56,0.00,BKN,,0.00,81.0,WeatherDisplay:10.37,2013-06-09 00:10:00,
2013-06-08 19:12:00,79.0,62.0,29.70,SSE,159,3.0,9.2,56,0.00,BKN,,0.00,86.0,WeatherDisplay:10.37,2013-06-09 00:12:00,
2013-06-08 19:13:00,79.1,62.1,29.70,South,184,1.8,4.0,56,0.00,BKN,,0.00,98.0,WeatherDisplay:10.37,2013-06-09 00:13:00,
2013-06-08 19:14:00,79.1,62.6,29.70,SE,140,2.4,6.0,57,0.00,BKN,,0.00,81.0,WeatherDisplay:10.37,2013-06-09 00:14:00,
2013-06-08 19:15:00,79.1,62.1,29.70,SSE,166,3.9,8.1,56,0.00,BKN,,0.00,67.0,WeatherDisplay:10.37,2013-06-09 00:15:00,
2013-06-08 19:18:00,78.7,61.7,29.70,South,178,5.4,10.4,56,0.00,BKN,,0.00,54.0,WeatherDisplay:10.37,2013-06-09 00:18:00,
2013-06-08 19:19:00,78.6,62.1,29.70,SSW,195,3.3,8.1,57,0.00,BKN,,0.00,70.0,WeatherDisplay:10.37,2013-06-09 00:19:00,
2013-06-08 19:20:00,78.5,62.0,29.70,SSE,167,3.8,4.6,57,0.00,BKN,,0.00,62.0,WeatherDisplay:10.37,2013-06-09 00:20:00,
2013-06-08 19:23:00,78.5,62.0,29.70,SSE,155,4.0,8.1,57,0.00,BKN,,0.00,65.0,WeatherDisplay:10.37,2013-06-09 00:23:00,
2013-06-08 19:24:00,78.4,62.4,29.70,South,170,2.0,8.0,58,0.00,BKN,,0.00,63.0,WeatherDisplay:10.37,2013-06-09 00:24:00,
2013-06-08 19:25:00,78.3,61.8,29.70,SSE,155,3.2,5.8,57,0.00,BKN,,0.00,60.0,WeatherDisplay:10.37,2013-06-09 00:25:00,
2013-06-08 19:28:00,78.3,61.8,29.70,WSW,254,4.0,9.2,57,0.00,BKN,,0.00,58.0,WeatherDisplay:10.37,2013-06-09 00:28:00,
2013-06-08 19:30:00,78.3,62.3,29.70,South,175,3.2,5.8,58,0.00,BKN,,0.00,56.0,WeatherDisplay:10.37,2013-06-09 00:30:00,
2013-06-08 19:33:00,78.1,62.1,29.70,SE,132,4.0,11.5,58,0.00,BKN,,0.00,54.0,WeatherDisplay:10.37,2013-06-09 00:33:00,
2013-06-08 19:34:00,78.1,62.1,29.70,SE,140,2.9,11.5,58,0.00,BKN,,0.00,54.0,WeatherDisplay:10.37,2013-06-09 00:34:00,
2013-06-08 19:35:00,78.0,62.5,29.70,ESE,119,2.6,8.1,59,0.00,BKN,,0.00,53.0,WeatherDisplay:10.37,2013-06-09 00:35:00,
2013-06-08 19:37:00,77.9,61.9,29.71,South,169,3.7,11.5,58,0.00,BKN,,0.00,53.0,WeatherDisplay:10.37,2013-06-09 00:37:00,
2013-06-08 19:39:00,77.8,61.8,29.70,South,189,6.6,8.1,58,0.00,BKN,,0.00,49.0,WeatherDisplay:10.37,2013-06-09 00:39:00,
2013-06-08 19:40:00,77.8,61.8,29.70,South,174,1.6,4.0,58,0.00,BKN,,0.00,47.0,WeatherDisplay:10.37,2013-06-09 00:40:00,
2013-06-08 19:43:00,77.6,62.1,29.71,SW,217,3.4,8.0,59,0.00,BKN,,0.00,46.0,WeatherDisplay:10.37,2013-06-09 00:43:00,
2013-06-08 19:44:00,77.6,61.7,29.71,South,173,6.2,11.5,58,0.00,BKN,,0.00,44.0,WeatherDisplay:10.37,2013-06-09 00:44:00,
2013-06-08 19:45:00,77.5,61.6,29.71,SE,139,4.7,8.1,58,0.00,BKN,,0.00,42.0,WeatherDisplay:10.37,2013-06-09 00:45:00,
2013-06-08 19:48:00,77.4,61.5,29.71,SSE,159,7.2,10.4,58,0.00,BKN,,0.00,40.0,WeatherDisplay:10.37,2013-06-09 00:48:00,
2013-06-08 19:49:00,77.4,61.5,29.71,SSE,163,5.4,11.5,58,0.00,BKN,,0.00,40.0,WeatherDisplay:10.37,2013-06-09 00:49:00,
2013-06-08 19:50:00,77.3,61.4,29.71,SSE,157,4.5,9.2,58,0.00,BKN,,0.00,39.0,WeatherDisplay:10.37,2013-06-09 00:50:00,
2013-06-08 19:51:00,77.2,61.3,29.71,SSW,192,4.9,6.9,58,0.00,BKN,,0.00,39.0,WeatherDisplay:10.37,2013-06-09 00:51:00,
2013-06-08 19:53:00,77.1,61.2,29.71,South,178,5.1,15.0,58,0.00,BKN,,0.00,37.0,WeatherDisplay:10.37,2013-06-09 00:53:00,
2013-06-08 19:54:00,77.1,61.2,29.71,South,183,3.0,15.0,58,0.00,BKN,,0.00,37.0,WeatherDisplay:10.37,2013-06-09 00:54:00,
2013-06-08 19:55:00,77.1,61.7,29.71,SE,138,3.1,6.9,59,0.00,BKN,,0.00,35.0,WeatherDisplay:10.37,2013-06-09 00:55:00,
2013-06-08 19:56:00,77.1,61.2,29.71,SSE,147,4.5,9.2,58,0.00,BKN,,0.00,32.0,WeatherDisplay:10.37,2013-06-09 00:56:00,
2013-06-08 19:58:00,76.9,61.5,29.71,SSE,155,5.0,8.1,59,0.00,BKN,,0.00,30.0,WeatherDisplay:10.37,2013-06-09 00:58:00,
2013-06-08 19:59:00,76.9,61.5,29.71,SSE,167,4.6,8.1,59,0.00,BKN,,0.00,28.0,WeatherDisplay:10.37,2013-06-09 00:59:00,
2013-06-08 20:00:00,76.8,61.4,29.71,South,169,3.4,6.9,59,0.00,CLR,,0.00,26.0,WeatherDisplay:10.37,2013-06-09 01:00:00,
2013-06-08 20:02:00,76.7,61.3,29.71,South,172,5.0,5.8,59,0.00,CLR,,0.00,25.0,WeatherDisplay:10.37,2013-06-09 01:02:00,
2013-06-08 20:03:00,76.7,61.3,29.71,SSE,155,6.5,9.2,59,0.00,CLR,,0.00,23.0,WeatherDisplay:10.37,2013-06-09 01:03:00,
2013-06-08 20:04:00,76.6,61.2,29.71,SE,142,5.5,9.2,59,0.00,CLR,,0.00,21.0,WeatherDisplay:10.37,2013-06-09 01:04:00,
2013-06-08 20:05:00,76.6,61.2,29.72,SSE,155,5.1,10.0,59,0.00,CLR,,0.00,21.0,WeatherDisplay:10.37,2013-06-09 01:05:00,
2013-06-08 20:07:00,76.6,61.2,29.72,SSW,196,5.8,11.5,59,0.00,CLR,,0.00,19.0,WeatherDisplay:10.37,2013-06-09 01:07:00,
2013-06-08 20:09:00,76.6,61.2,29.72,SSE,156,3.2,8.1,59,0.00,CLR,,0.00,18.0,WeatherDisplay:10.37,2013-06-09 01:09:00,
2013-06-08 20:10:00,76.5,61.1,29.72,South,178,4.1,10.4,59,0.00,CLR,,0.00,18.0,WeatherDisplay:10.37,2013-06-09 01:10:00,
2013-06-08 20:12:00,76.3,61.4,29.72,South,171,5.1,11.5,60,0.00,CLR,,0.00,16.0,WeatherDisplay:10.37,2013-06-09 01:12:00,
2013-06-08 20:14:00,76.3,61.4,29.72,SSW,202,4.8,8.1,60,0.00,CLR,,0.00,16.0,WeatherDisplay:10.37,2013-06-09 01:14:00,
2013-06-08 20:15:00,76.2,61.3,29.72,SSE,148,4.6,8.1,60,0.00,CLR,,0.00,14.0,WeatherDisplay:10.37,2013-06-09 01:15:00,
2013-06-08 20:17:00,76.1,61.2,29.72,SE,141,2.7,5.8,60,0.00,CLR,,0.00,12.0,WeatherDisplay:10.37,2013-06-09 01:17:00,
2013-06-08 20:19:00,76.1,61.2,29.72,SE,143,4.3,6.9,60,0.00,CLR,,0.00,12.0,WeatherDisplay:10.37,2013-06-09 01:19:00,
2013-06-08 20:20:00,76.0,61.6,29.72,SSE,161,4.9,8.0,61,0.00,CLR,,0.00,11.0,WeatherDisplay:10.37,2013-06-09 01:20:00,
2013-06-08 20:22:00,75.9,61.5,29.72,SSE,163,3.4,5.8,61,0.00,CLR,,0.00,9.0,WeatherDisplay:10.37,2013-06-09 01:22:00,
2013-06-08 20:23:00,75.9,61.5,29.72,SSE,163,3.4,5.8,61,0.00,CLR,,0.00,9.0,WeatherDisplay:10.37,2013-06-09 01:23:00,
2013-06-08 20:24:00,75.8,61.4,29.72,South,180,3.1,5.8,61,0.00,CLR,,0.00,9.0,WeatherDisplay:10.37,2013-06-09 01:24:00,
2013-06-08 20:25:00,75.8,61.4,29.72,South,188,2.9,7.0,61,0.00,CLR,,0.00,7.0,WeatherDisplay:10.37,2013-06-09 01:25:00,
2013-06-08 20:28:00,75.7,61.8,29.73,South,171,3.0,3.5,62,0.00,CLR,,0.00,7.0,WeatherDisplay:10.37,2013-06-09 01:28:00,
2013-06-08 20:29:00,75.7,61.8,29.73,SE,134,2.8,5.8,62,0.00,CLR,,0.00,5.0,WeatherDisplay:10.37,2013-06-09 01:29:00,
2013-06-08 20:30:00,75.5,61.6,29.73,SSW,193,2.7,4.0,62,0.00,CLR,,0.00,5.0,WeatherDisplay:10.37,2013-06-09 01:30:00,
2013-06-08 20:33:00,75.5,61.6,29.73,SW,224,0.7,2.3,62,0.00,CLR,,0.00,0.0,WeatherDisplay:10.37,2013-06-09 01:33:00,
2013-06-08 20:34:00,75.4,61.9,29.73,SW,224,0.2,2.3,63,0.00,CLR,,0.00,0.0,WeatherDisplay:10.37,2013-06-09 01:34:00,
2013-06-08 20:35:00,75.3,61.8,29.73,SSE,153,0.7,1.2,63,0.00,CLR,,0.00,0.0,WeatherDisplay:10.37,2013-06-09 01:35:00,
2013-06-08 20:36:00,75.3,61.8,29.73,South,173,1.1,2.3,63,0.00,CLR,,0.00,0.0,WeatherDisplay:10.37,2013-06-09 01:36:00,
2013-06-08 20:38:00,75.3,61.8,29.73,South,186,0.9,3.5,63,0.00,CLR,,0.00,0.0,WeatherDisplay:10.37,2013-06-09 01:38:00,
2013-06-08 20:39:00,75.3,61.8,29.73,South,186,0.3,2.3,63,0.00,CLR,,0.00,0.0,WeatherDisplay:10.37,2013-06-09 01:39:00,
2013-06-08 20:40:00,75.2,61.7,29.74,SSE,149,0.2,2.0,63,0.00,CLR,,0.00,0.0,WeatherDisplay:10.37,2013-06-09 01:40:00,
2013-06-08 20:41:00,75.2,62.2,29.74,South,169,0.6,2.0,64,0.00,CLR,,0.00,0.0,WeatherDisplay:10.37,2013-06-09 01:41:00,
2013-06-08 20:43:00,75.1,61.6,29.74,SSE,156,2.1,3.5,63,0.00,CLR,,0.00,0.0,WeatherDisplay:10.37,2013-06-09 01:43:00,
2013-06-08 20:44:00,75.1,62.1,29.74,WSW,258,1.1,4.6,64,0.00,CLR,,0.00,0.0,WeatherDisplay:10.37,2013-06-09 01:44:00,
2013-06-08 20:45:00,75.1,62.1,29.74,SW,223,2.1,3.5,64,0.00,CLR,,0.00,0.0,WeatherDisplay:10.37,2013-06-09 01:45:00,
2013-06-08 20:47:00,75.1,62.1,29.74,SSW,193,1.6,3.5,64,0.00,CLR,,0.00,0.0,WeatherDisplay:10.37,2013-06-09 01:47:00,
2013-06-08 20:48:00,75.0,62.0,29.74,SSE,162,2.2,3.5,64,0.00,CLR,,0.00,0.0,WeatherDisplay:10.37,2013-06-09 01:48:00,
2013-06-08 20:49:00,75.0,62.0,29.74,South,186,3.5,5.0,64,0.00,CLR,,0.00,0.0,WeatherDisplay:10.37,2013-06-09 01:49:00,
2013-06-08 20:50:00,74.9,61.9,29.75,SSE,151,3.5,4.6,64,0.00,CLR,,0.00,0.0,WeatherDisplay:10.37,2013-06-09 01:50:00,
2013-06-08 20:51:00,74.9,61.9,29.74,SSE,155,1.3,4.6,64,0.00,CLR,,0.00,0.0,WeatherDisplay:10.37,2013-06-09 01:51:00,
2013-06-08 20:52:00,74.9,61.9,29.74,SE,137,2.0,3.5,64,0.00,CLR,,0.00,0.0,WeatherDisplay:10.37,2013-06-09 01:52:00,
2013-06-08 20:53:00,74.8,61.8,29.74,South,173,1.8,3.5,64,0.00,CLR,,0.00,0.0,WeatherDisplay:10.37,2013-06-09 01:53:00,
2013-06-08 20:54:00,74.8,61.8,29.74,SSW,200,2.4,3.5,64,0.00,CLR,,0.00,0.0,WeatherDisplay:10.37,2013-06-09 01:54:00,
2013-06-08 20:55:00,74.8,61.8,29.74,SE,141,2.1,3.5,64,0.00,CLR,,0.00,0.0,WeatherDisplay:10.37,2013-06-09 01:55:00,
2013-06-08 20:56:00,74.7,61.7,29.74,South,186,1.3,3.5,64,0.00,CLR,,0.00,0.0,WeatherDisplay:10.37,2013-06-09 01:56:00,
2013-06-08 20:57:00,74.7,62.1,29.75,SSE,153,0.5,2.3,65,0.00,CLR,,0.00,0.0,WeatherDisplay:10.37,2013-06-09 01:57:00,
2013-06-08 20:59:00,74.6,62.1,29.75,SSE,157,1.3,2.3,65,0.00,CLR,,0.00,0.0,WeatherDisplay:10.37,2013-06-09 01:59:00,
2013-06-08 21:01:00,74.6,62.1,29.75,SE,129,0.9,4.6,65,0.00,CLR,,0.00,0.0,WeatherDisplay:10.37,2013-06-09 02:01:00,
2013-06-08 21:02:00,74.6,62.1,29.75,WSW,250,3.8,5.0,65,0.00,CLR,,0.00,0.0,WeatherDisplay:10.37,2013-06-09 02:02:00,
2013-06-08 21:04:00,74.5,62.0,29.75,SSE,161,1.3,3.5,65,0.00,CLR,,0.00,0.0,WeatherDisplay:10.37,2013-06-09 02:04:00,
2013-06-08 21:05:00,74.5,62.0,29.75,SSE,150,0.8,5.0,65,0.00,CLR,,0.00,0.0,WeatherDisplay:10.37,2013-06-09 02:05:00,
2013-06-08 21:06:00,74.5,62.0,29.75,SSW,203,0.1,3.5,65,0.00,CLR,,0.00,0.0,WeatherDisplay:10.37,2013-06-09 02:06:00,
2013-06-08 21:07:00,74.4,61.9,29.75,SSW,204,0.0,3.5,65,0.00,CLR,,0.00,0.0,WeatherDisplay:10.37,2013-06-09 02:07:00,
2013-06-08 21:09:00,74.4,61.9,29.75,SSE,165,3.3,4.6,65,0.00,CLR,,0.00,0.0,WeatherDisplay:10.37,2013-06-09 02:09:00,
2013-06-08 21:10:00,74.3,62.2,29.75,SSE,159,1.7,3.5,66,0.00,CLR,,0.00,0.0,WeatherDisplay:10.37,2013-06-09 02:10:00,
2013-06-08 21:12:00,74.3,62.2,29.75,SSE,149,2.2,6.9,66,0.00,CLR,,0.00,0.0,WeatherDisplay:10.37,2013-06-09 02:12:00,
2013-06-08 21:14:00,74.2,62.1,29.75,SE,132,0.7,3.5,66,0.00,CLR,,0.00,0.0,WeatherDisplay:10.37,2013-06-09 02:14:00,
2013-06-08 21:15:00,74.2,62.1,29.75,SE,146,1.0,3.0,66,0.00,CLR,,0.00,0.0,WeatherDisplay:10.37,2013-06-09 02:15:00,
2013-06-08 21:17:00,74.1,62.0,29.75,South,172,0.4,3.5,66,0.00,CLR,,0.00,0.0,WeatherDisplay:10.37,2013-06-09 02:17:00,
2013-06-08 21:19:00,74.1,62.0,29.75,ESE,120,1.5,3.5,66,0.00,CLR,,0.00,0.0,WeatherDisplay:10.37,2013-06-09 02:19:00,
2013-06-08 21:21:00,74.0,61.9,29.75,South,180,1.1,3.5,66,0.00,CLR,,0.00,0.0,WeatherDisplay:10.37,2013-06-09 02:21:00,
2013-06-08 21:22:00,73.9,61.8,29.75,SW,232,2.3,3.5,66,0.00,CLR,,0.00,0.0,WeatherDisplay:10.37,2013-06-09 02:22:00,
2013-06-08 21:23:00,73.9,61.8,29.75,SW,232,1.9,3.5,66,0.00,CLR,,0.00,0.0,WeatherDisplay:10.37,2013-06-09 02:23:00,
2013-06-08 21:24:00,73.9,62.2,29.75,SW,217,0.6,2.3,67,0.00,CLR,,0.00,0.0,WeatherDisplay:10.37,2013-06-09 02:24:00,
2013-06-08 21:27:00,73.7,62.1,29.75,SSE,163,0.9,2.3,67,0.00,CLR,,0.00,0.0,WeatherDisplay:10.37,2013-06-09 02:27:00,
2013-06-08 21:28:00,73.7,62.1,29.74,SSW,196,2.0,3.5,67,0.00,CLR,,0.00,0.0,WeatherDisplay:10.37,2013-06-09 02:28:00,
2013-06-08 21:30:00,73.6,62.0,29.75,South,184,0.7,2.3,67,0.00,CLR,,0.00,0.0,WeatherDisplay:10.37,2013-06-09 02:30:00,
2013-06-08 21:32:00,73.5,61.9,29.74,South,178,2.2,3.5,67,0.00,CLR,,0.00,0.0,WeatherDisplay:10.37,2013-06-09 02:32:00,
2013-06-08 21:33:00,73.4,61.8,29.74,SE,129,2.5,5.0,67,0.00,CLR,,0.00,0.0,WeatherDisplay:10.37,2013-06-09 02:33:00,
2013-06-08 21:35:00,73.4,61.8,29.74,SE,134,1.9,4.6,67,0.00,CLR,,0.00,0.0,WeatherDisplay:10.37,2013-06-09 02:35:00,
2013-06-08 21:37:00,73.4,61.8,29.74,SSE,153,2.4,4.6,67,0.00,CLR,,0.00,0.0,WeatherDisplay:10.37,2013-06-09 02:37:00,
2013-06-08 21:38:00,73.3,62.1,29.74,SSE,153,0.5,3.5,68,0.00,CLR,,0.00,0.0,WeatherDisplay:10.37,2013-06-09 02:38:00,
2013-06-08 21:40:00,73.3,62.1,29.74,SSE,161,3.0,5.8,68,0.00,CLR,,0.00,0.0,WeatherDisplay:10.37,2013-06-09 02:40:00,
2013-06-08 21:42:00,73.2,62.0,29.74,SSE,150,3.2,4.6,68,0.00,CLR,,0.00,0.0,WeatherDisplay:10.37,2013-06-09 02:42:00,
2013-06-08 21:43:00,73.2,62.0,29.74,South,187,2.2,4.6,68,0.00,CLR,,0.00,0.0,WeatherDisplay:10.37,2013-06-09 02:43:00,
2013-06-08 21:45:00,73.2,62.0,29.74,South,173,3.0,4.6,68,0.00,CLR,,0.00,0.0,WeatherDisplay:10.37,2013-06-09 02:45:00,
2013-06-08 21:47:00,73.2,62.0,29.74,SSW,196,2.0,3.5,68,0.00,CLR,,0.00,0.0,WeatherDisplay:10.37,2013-06-09 02:47:00,
2013-06-08 21:48:00,73.1,61.9,29.74,South,188,1.7,3.5,68,0.00,CLR,,0.00,0.0,WeatherDisplay:10.37,2013-06-09 02:48:00,
2013-06-08 21:49:00,73.1,61.9,29.74,South,188,1.7,3.5,68,0.00,CLR,,0.00,0.0,WeatherDisplay:10.37,2013-06-09 02:49:00,
2013-06-08 21:51:00,73.1,61.9,29.75,South,178,1.3,3.5,68,0.00,CLR,,0.00,0.0,WeatherDisplay:10.37,2013-06-09 02:51:00,
2013-06-08 21:53:00,73.1,61.9,29.75,South,177,2.9,3.5,68,0.00,CLR,,0.00,0.0,WeatherDisplay:10.37,2013-06-09 02:53:00,
2013-06-08 21:54:00,73.1,61.9,29.75,SSE,161,1.5,4.6,68,0.00,CLR,,0.00,0.0,WeatherDisplay:10.37,2013-06-09 02:54:00,
2013-06-08 21:56:00,73.0,61.8,29.75,SSW,212,1.1,3.0,68,0.00,CLR,,0.00,0.0,WeatherDisplay:10.37,2013-06-09 02:56:00,
2013-06-08 21:58:00,73.1,61.9,29.75,South,188,0.9,4.6,68,0.00,CLR,,0.00,0.0,WeatherDisplay:10.37,2013-06-09 02:58:00,
2013-06-08 21:59:00,73.0,62.2,29.75,SE,142,1.3,3.0,69,0.00,CLR,,0.00,0.0,WeatherDisplay:10.37,2013-06-09 02:59:00,
2013-06-08 22:02:00,73.1,62.3,29.75,SSE,165,1.2,3.5,69,0.00,CLR,,0.00,0.0,WeatherDisplay:10.37,2013-06-09 03:02:00,
2013-06-08 22:03:00,73.0,61.8,29.75,SSE,165,0.7,2.3,68,0.00,CLR,,0.00,0.0,WeatherDisplay:10.37,2013-06-09 03:03:00,
2013-06-08 22:04:00,73.0,62.2,29.75,South,177,1.9,3.0,69,0.00,CLR,,0.00,0.0,WeatherDisplay:10.37,2013-06-09 03:04:00,
2013-06-08 22:07:00,73.0,61.8,29.75,SSW,209,1.7,3.5,68,0.00,CLR,,0.00,0.0,WeatherDisplay:10.37,2013-06-09 03:07:00,
2013-06-08 22:08:00,73.0,62.2,29.75,South,189,0.4,2.3,69,0.00,CLR,,0.00,0.0,WeatherDisplay:10.37,2013-06-09 03:08:00,
2013-06-08 22:09:00,72.9,62.1,29.75,South,189,0.7,2.3,69,0.00,CLR,,0.00,0.0,WeatherDisplay:10.37,2013-06-09 03:09:00,
2013-06-08 22:13:00,72.9,61.7,29.75,SW,221,0.8,2.3,68,0.00,CLR,,0.00,0.0,WeatherDisplay:10.37,2013-06-09 03:13:00,
2013-06-08 22:14:00,72.9,62.1,29.76,SSW,192,1.8,4.0,69,0.00,CLR,,0.00,0.0,WeatherDisplay:10.37,2013-06-09 03:14:00,
2013-06-08 22:15:00,72.9,61.7,29.75,SSW,192,1.7,3.5,68,0.00,CLR,,0.00,0.0,WeatherDisplay:10.37,2013-06-09 03:15:00,
2013-06-08 22:18:00,72.8,62.0,29.76,South,186,1.6,3.5,69,0.00,CLR,,0.00,0.0,WeatherDisplay:10.37,2013-06-09 03:18:00,
2013-06-08 22:19:00,72.7,61.9,29.76,South,178,1.2,3.5,69,0.00,CLR,,0.00,0.0,WeatherDisplay:10.37,2013-06-09 03:19:00,
2013-06-08 22:20:00,72.7,61.9,29.76,SSE,161,2.0,3.5,69,0.00,CLR,,0.00,0.0,WeatherDisplay:10.37,2013-06-09 03:20:00,
2013-06-08 22:24:00,72.6,62.3,29.76,WSW,250,1.5,3.5,70,0.00,CLR,,0.00,0.0,WeatherDisplay:10.37,2013-06-09 03:24:00,
2013-06-08 22:25:00,72.6,61.8,29.77,WSW,240,3.1,5.0,69,0.00,CLR,,0.00,0.0,WeatherDisplay:10.37,2013-06-09 03:25:00,
2013-06-08 22:29:00,72.6,61.4,29.78,SW,227,7.0,16.1,68,0.00,CLR,,0.00,0.0,WeatherDisplay:10.37,2013-06-09 03:29:00,
2013-06-08 22:30:00,72.6,60.6,29.78,WSW,242,5.9,8.1,66,0.00,CLR,,0.00,0.0,WeatherDisplay:10.37,2013-06-09 03:30:00,
2013-06-08 22:34:00,72.0,59.2,29.78,WNW,296,4.8,10.4,64,0.00,CLR,,0.00,0.0,WeatherDisplay:10.37,2013-06-09 03:34:00,
2013-06-08 22:35:00,71.8,59.4,29.78,NNW,346,3.9,9.2,65,0.00,CLR,,0.00,0.0,WeatherDisplay:10.37,2013-06-09 03:35:00,
2013-06-08 22:36:00,71.7,59.3,29.78,WNW,295,3.3,8.1,65,0.00,CLR,,0.00,0.0,WeatherDisplay:10.37,2013-06-09 03:36:00,
2013-06-08 22:39:00,71.2,59.3,29.79,NW,322,3.4,8.1,66,0.00,CLR,,0.00,0.0,WeatherDisplay:10.37,2013-06-09 03:39:00,
2013-06-08 22:40:00,71.1,59.2,29.78,NNW,344,6.3,10.4,66,0.00,CLR,,0.00,0.0,WeatherDisplay:10.37,2013-06-09 03:40:00,
2013-06-08 22:41:00,71.0,59.5,29.79,NNW,340,7.5,11.5,67,0.00,CLR,,0.00,0.0,WeatherDisplay:10.37,2013-06-09 03:41:00,
2013-06-08 22:42:00,70.8,58.9,29.79,WNW,292,6.4,13.8,66,0.00,CLR,,0.00,0.0,WeatherDisplay:10.37,2013-06-09 03:42:00,
2013-06-08 22:44:00,70.3,58.8,29.78,NW,304,4.0,6.9,67,0.00,CLR,,0.00,0.0,WeatherDisplay:10.37,2013-06-09 03:44:00,
2013-06-08 22:45:00,70.0,59.0,29.79,NNW,336,5.8,8.1,68,0.00,CLR,,0.00,0.0,WeatherDisplay:10.37,2013-06-09 03:45:00,
2013-06-08 22:46:00,69.7,59.1,29.78,NNE,30,3.2,6.9,69,0.00,CLR,,0.00,0.0,WeatherDisplay:10.37,2013-06-09 03:46:00,
2013-06-08 22:47:00,69.5,59.3,29.78,NW,310,2.7,6.9,70,0.00,CLR,,0.00,0.0,WeatherDisplay:10.37,2013-06-09 03:47:00,
2013-06-08 22:49:00,69.0,58.8,29.78,WNW,296,1.6,6.9,70,0.00,CLR,,0.00,0.0,WeatherDisplay:10.37,2013-06-09 03:49:00,
2013-06-08 22:50:00,68.9,58.7,29.78,West,276,1.3,4.0,70,0.00,CLR,,0.00,0.0,WeatherDisplay:10.37,2013-06-09 03:50:00,
2013-06-08 22:52:00,68.6,59.2,29.78,West,273,2.9,6.0,72,0.00,CLR,,0.00,0.0,WeatherDisplay:10.37,2013-06-09 03:52:00,
2013-06-08 22:54:00,68.3,58.9,29.79,West,281,2.0,8.0,72,0.00,CLR,,0.00,0.0,WeatherDisplay:10.37,2013-06-09 03:54:00,
2013-06-08 22:55:00,68.1,59.1,29.79,WNW,294,2.1,3.5,73,0.00,CLR,,0.00,0.0,WeatherDisplay:10.37,2013-06-09 03:55:00,
2013-06-08 22:56:00,68.0,59.0,29.79,WSW,248,3.6,6.9,73,0.00,CLR,,0.00,0.0,WeatherDisplay:10.37,2013-06-09 03:56:00,
2013-06-08 22:57:00,67.9,59.3,29.79,West,263,2.6,6.9,74,0.00,CLR,,0.00,0.0,WeatherDisplay:10.37,2013-06-09 03:57:00,
2013-06-08 22:58:00,67.8,59.6,29.79,West,266,3.1,9.0,75,0.00,CLR,,0.00,0.0,WeatherDisplay:10.37,2013-06-09 03:58:00,
2013-06-08 22:59:00,67.6,59.4,29.79,West,262,2.0,9.0,75,0.00,CLR,,0.00,0.0,WeatherDisplay:10.37,2013-06-09 03:59:00,
2013-06-08 23:00:00,67.5,60.0,29.79,West,281,0.4,2.3,77,0.00,CLR,,0.00,0.0,WeatherDisplay:10.37,2013-06-09 04:00:00,
2013-06-08 23:01:00,67.4,59.9,29.79,WNW,282,0.5,1.2,77,0.00,CLR,,0.00,0.0,WeatherDisplay:10.37,2013-06-09 04:01:00,
2013-06-08 23:06:00,66.6,59.9,29.79,NW,315,4.7,10.4,79,0.00,CLR,,0.00,0.0,WeatherDisplay:10.37,2013-06-09 04:06:00,
2013-06-08 23:07:00,66.4,59.7,29.78,West,281,3.5,5.8,79,0.00,CLR,,0.00,0.0,WeatherDisplay:10.37,2013-06-09 04:07:00,
2013-06-08 23:11:00,66.1,59.7,29.79,WNW,293,1.3,3.5,80,0.00,CLR,,0.00,0.0,WeatherDisplay:10.37,2013-06-09 04:11:00,
2013-06-08 23:12:00,66.0,60.0,29.78,SW,234,1.4,3.0,81,0.00,CLR,,0.00,0.0,WeatherDisplay:10.37,2013-06-09 04:12:00,
2013-06-08 23:17:00,65.6,60.0,29.78,NW,309,1.1,3.5,82,0.00,CLR,,0.00,0.0,WeatherDisplay:10.37,2013-06-09 04:17:00,
2013-06-08 23:18:00,65.6,60.0,29.79,NW,309,0.8,3.5,82,0.00,CLR,,0.00,0.0,WeatherDisplay:10.37,2013-06-09 04:18:00,
2013-06-08 23:22:00,65.5,60.2,29.79,West,275,0.8,2.3,83,0.00,CLR,,0.00,0.0,WeatherDisplay:10.37,2013-06-09 04:22:00,
2013-06-08 23:23:00,65.4,60.1,29.79,West,275,1.1,3.5,83,0.00,CLR,,0.00,0.0,WeatherDisplay:10.37,2013-06-09 04:23:00,
2013-06-08 23:27:00,65.2,60.2,29.79,WNW,293,2.5,4.6,84,0.00,CLR,,0.00,0.0,WeatherDisplay:10.37,2013-06-09 04:27:00,
2013-06-08 23:28:00,65.2,60.2,29.79,WNW,290,0.6,4.6,84,0.00,CLR,,0.00,0.0,WeatherDisplay:10.37,2013-06-09 04:28:00,
2013-06-08 23:32:00,65.0,60.4,29.80,WNW,288,1.0,3.5,85,0.00,CLR,,0.00,0.0,WeatherDisplay:10.37,2013-06-09 04:32:00,
2013-06-08 23:33:00,65.0,60.4,29.80,NW,304,1.0,3.5,85,0.00,CLR,,0.00,0.0,WeatherDisplay:10.37,2013-06-09 04:33:00,
2013-06-08 23:34:00,64.9,60.3,29.80,NW,322,2.0,3.5,85,0.00,CLR,,0.00,0.0,WeatherDisplay:10.37,2013-06-09 04:34:00,
2013-06-08 23:37:00,64.7,60.7,29.78,North,360,1.9,3.5,87,0.01,RA,,0.01,0.0,WeatherDisplay:10.37,2013-06-09 04:37:00,
2013-06-08 23:38:00,64.7,60.7,29.78,North,360,1.3,3.5,87,0.01,RA,,0.01,0.0,WeatherDisplay:10.37,2013-06-09 04:38:00,
2013-06-08 23:39:00,64.6,61.0,29.78,NW,306,0.3,3.5,88,0.01,RA,,0.01,0.0,WeatherDisplay:10.37,2013-06-09 04:39:00,
2013-06-08 23:42:00,64.5,61.2,29.78,NW,309,0.0,0.0,89,0.01,RA,,0.01,0.0,WeatherDisplay:10.37,2013-06-09 04:42:00,
2013-06-08 23:43:00,64.5,61.2,29.78,NW,309,0.0,0.0,89,0.01,RA,,0.01,0.0,WeatherDisplay:10.37,2013-06-09 04:43:00,
2013-06-08 23:44:00,64.5,61.5,29.78,NW,309,0.0,0.0,90,0.01,RA,,0.01,0.0,WeatherDisplay:10.37,2013-06-09 04:44:00,
2013-06-08 23:48:00,64.3,61.6,29.78,NW,309,0.0,0.0,91,0.01,CLR,,0.01,0.0,WeatherDisplay:10.37,2013-06-09 04:48:00,
2013-06-08 23:49:00,64.2,61.8,29.78,NW,309,0.0,0.0,92,0.01,CLR,,0.01,0.0,WeatherDisplay:10.37,2013-06-09 04:49:00,
2013-06-08 23:53:00,64.1,62.0,29.77,NW,309,0.0,0.0,93,0.02,RA,,0.02,0.0,WeatherDisplay:10.37,2013-06-09 04:53:00,
2013-06-08 23:54:00,64.1,62.0,29.77,NW,309,0.0,0.0,93,0.02,RA,,0.02,0.0,WeatherDisplay:10.37,2013-06-09 04:54:00,
2013-06-08 23:58:00,64.0,61.9,29.77,NW,309,0.0,0.0,93,0.02,RA,,0.02,0.0,WeatherDisplay:10.37,2013-06-09 04:58:00,
2013-06-08 23:59:00,64.0,61.9,29.77,NW,309,0.0,0.0,93,0.02,RA,,0.02,0.0,WeatherDisplay:10.37,2013-06-09 04:59:00,